Observation data for Truscott on 11/19/2019      Previous  Date       Current Mesonet Observations  Soil Data  Daily Summary Page  Observations in Plain Language
KTR1 190600Z 26006KT 08/02 A2993 RMK A01 T00840024  RH  066%=      5-min Rain = 0
KTR1 190601Z 25006KT 08/03 A2993 RMK A01 T00840025  RH  067%=      5-min Rain = 0
KTR1 190602Z 25005KT 08/03 A2993 RMK A01 T00830026  RH  067%=      5-min Rain = 0
KTR1 190603Z 24005KT 08/03 A2993 RMK A01 T00830026  RH  068%=      5-min Rain = 0
KTR1 190604Z 24005KT 08/03 A2992 RMK A01 T00820026  RH  068%=      5-min Rain = 0
KTR1 190605Z 25005KT 08/03 A2993 RMK A01 T00840027  RH  067%=      5-min Rain = 0
KTR1 190606Z 26004KT 09/03 A2993 RMK A01 T00870027  RH  066%=      5-min Rain = 0
KTR1 190607Z 26004KT 09/03 A2993 RMK A01 T00890026  RH  065%=      5-min Rain = 0
KTR1 190608Z 26004KT 09/03 A2993 RMK A01 T00910026  RH  064%=      5-min Rain = 0
KTR1 190609Z 26004KT 09/03 A2993 RMK A01 T00930025  RH  063%=      5-min Rain = 0
KTR1 190610Z 26004KT 10/03 A2993 RMK A01 T00950025  RH  061%=      5-min Rain = 0
KTR1 190611Z 26004KT 10/03 A2993 RMK A01 T00970025  RH  061%=      5-min Rain = 0
KTR1 190612Z 27003KT 10/03 A2993 RMK A01 T00980025  RH  060%=      5-min Rain = 0
KTR1 190613Z 28003KT 10/03 A2993 RMK A01 T00970025  RH  061%=      5-min Rain = 0
KTR1 190614Z 29003KT 10/03 A2993 RMK A01 T00950026  RH  062%=      5-min Rain = 0
KTR1 190615Z 29003KT 09/03 A2993 RMK A01 T00910025  RH  063%=      5-min Rain = 0
KTR1 190616Z 29003KT 09/03 A2993 RMK A01 T00880025  RH  065%=      5-min Rain = 0
KTR1 190617Z 29003KT 09/03 A2993 RMK A01 T00870025  RH  065%=      5-min Rain = 0
KTR1 190618Z 29003KT 09/03 A2993 RMK A01 T00860025  RH  065%=      5-min Rain = 0
KTR1 190619Z 30003KT 09/03 A2993 RMK A01 T00860026  RH  066%=      5-min Rain = 0
KTR1 190620Z 30003KT 09/03 A2993 RMK A01 T00860026  RH  066%=      5-min Rain = 0
KTR1 190621Z 30004KT 08/03 A2993 RMK A01 T00840025  RH  066%=      5-min Rain = 0
KTR1 190622Z 29004KT 08/03 A2993 RMK A01 T00840025  RH  066%=      5-min Rain = 0
KTR1 190623Z 29004KT 08/03 A2993 RMK A01 T00840026  RH  067%=      5-min Rain = 0
KTR1 190624Z 29004KT 08/03 A2993 RMK A01 T00830025  RH  067%=      5-min Rain = 0
KTR1 190625Z 29004KT 08/03 A2993 RMK A01 T00820025  RH  067%=      5-min Rain = 0
KTR1 190626Z 29004KT 08/03 A2993 RMK A01 T00810025  RH  068%=      5-min Rain = 0
KTR1 190627Z 29004KT 08/03 A2993 RMK A01 T00800025  RH  068%=      5-min Rain = 0
KTR1 190628Z 29003KT 08/03 A2993 RMK A01 T00800025  RH  068%=      5-min Rain = 0
KTR1 190629Z 29003KT 08/03 A2993 RMK A01 T00810025  RH  068%=      5-min Rain = 0
KTR1 190630Z 28003KT 08/03 A2993 RMK A01 T00810025  RH  067%=      5-min Rain = 0
KTR1 190631Z 28003KT 08/03 A2993 RMK A01 T00820025  RH  067%=      5-min Rain = 0
KTR1 190632Z 28003KT 08/03 A2993 RMK A01 T00820025  RH  067%=      5-min Rain = 0
KTR1 190633Z 29003KT 08/03 A2993 RMK A01 T00840026  RH  067%=      5-min Rain = 0
KTR1 190634Z 29003KT 09/03 A2993 RMK A01 T00860027  RH  066%=      5-min Rain = 0
KTR1 190635Z 29003KT 09/03 A2993 RMK A01 T00880027  RH  065%=      5-min Rain = 0
KTR1 190636Z 29004KT 09/03 A2993 RMK A01 T00900026  RH  064%=      5-min Rain = 0
KTR1 190637Z 29004KT 09/03 A2993 RMK A01 T00910026  RH  064%=      5-min Rain = 0
KTR1 190638Z 28004KT 09/03 A2993 RMK A01 T00930027  RH  064%=      5-min Rain = 0
KTR1 190639Z 28004KT 09/03 A2993 RMK A01 T00940027  RH  063%=      5-min Rain = 0
KTR1 190640Z 28004KT 09/03 A2993 RMK A01 T00940027  RH  063%=      5-min Rain = 0
KTR1 190641Z 28004KT 09/03 A2993 RMK A01 T00940027  RH  063%=      5-min Rain = 0
KTR1 190642Z 27004KT 09/03 A2993 RMK A01 T00940027  RH  063%=      5-min Rain = 0
KTR1 190643Z 27004KT 09/03 A2993 RMK A01 T00940027  RH  063%=      5-min Rain = 0
KTR1 190644Z 28004KT 09/03 A2993 RMK A01 T00940027  RH  063%=      5-min Rain = 0
KTR1 190645Z 28005KT 09/03 A2993 RMK A01 T00930026  RH  063%=      5-min Rain = 0
KTR1 190646Z 28005KT 09/03 A2993 RMK A01 T00920026  RH  063%=      5-min Rain = 0
KTR1 190647Z 28005KT 09/03 A2993 RMK A01 T00910026  RH  064%=      5-min Rain = 0
KTR1 190648Z 27005KT 09/03 A2993 RMK A01 T00890026  RH  064%=      5-min Rain = 0
KTR1 190649Z 27004KT 09/03 A2993 RMK A01 T00880026  RH  065%=      5-min Rain = 0
KTR1 190650Z 27004KT 09/03 A2993 RMK A01 T00870026  RH  065%=      5-min Rain = 0
KTR1 190651Z 27004KT 09/03 A2993 RMK A01 T00860026  RH  066%=      5-min Rain = 0
KTR1 190652Z 27004KT 09/03 A2993 RMK A01 T00850026  RH  066%=      5-min Rain = 0
KTR1 190653Z 28004KT 09/03 A2993 RMK A01 T00850026  RH  067%=      5-min Rain = 0
KTR1 190654Z 28004KT 08/03 A2993 RMK A01 T00840026  RH  067%=      5-min Rain = 0
KTR1 190655Z 27004KT 08/03 A2993 RMK A01 T00840026  RH  067%=      5-min Rain = 0
KTR1 190656Z 27004KT 08/03 A2993 RMK A01 T00840026  RH  067%=      5-min Rain = 0
KTR1 190657Z 27004KT 08/03 A2993 RMK A01 T00830026  RH  067%=      5-min Rain = 0
KTR1 190658Z 28005KT 08/03 A2993 RMK A01 T00830026  RH  067%=      5-min Rain = 0
KTR1 190659Z 28005KT 08/03 A2993 RMK A01 T00820026  RH  068%=      5-min Rain = 0
KTR1 190700Z 27004KT 08/03 A2993 RMK A01 T00820026  RH  068%=      5-min Rain = 0
KTR1 190701Z 27004KT 08/03 A2993 RMK A01 T00820026  RH  068%=      5-min Rain = 0
KTR1 190702Z 27004KT 08/03 A2992 RMK A01 T00820026  RH  068%=      5-min Rain = 0
KTR1 190703Z 28004KT 08/03 A2993 RMK A01 T00820026  RH  068%=      5-min Rain = 0
KTR1 190704Z 28004KT 08/03 A2993 RMK A01 T00820026  RH  068%=      5-min Rain = 0
KTR1 190705Z 29004KT 08/03 A2993 RMK A01 T00810026  RH  068%=      5-min Rain = 0
KTR1 190706Z 29004KT 08/03 A2993 RMK A01 T00800025  RH  068%=      5-min Rain = 0
KTR1 190707Z 30003KT 08/03 A2993 RMK A01 T00780025  RH  069%=      5-min Rain = 0
KTR1 190708Z 31003KT 08/03 A2993 RMK A01 T00770025  RH  070%=      5-min Rain = 0
KTR1 190709Z 30002KT 08/03 A2993 RMK A01 T00770026  RH  070%=      5-min Rain = 0
KTR1 190710Z 31003KT 08/03 A2993 RMK A01 T00770027  RH  071%=      5-min Rain = 0
KTR1 190711Z 31003KT 08/03 A2993 RMK A01 T00760027  RH  071%=      5-min Rain = 0
KTR1 190712Z 31002KT 08/03 A2993 RMK A01 T00760027  RH  071%=      5-min Rain = 0
KTR1 190713Z 30003KT 08/03 A2993 RMK A01 T00770027  RH  071%=      5-min Rain = 0
KTR1 190714Z 29003KT 08/03 A2993 RMK A01 T00770027  RH  071%=      5-min Rain = 0
KTR1 190715Z 29003KT 08/03 A2993 RMK A01 T00780028  RH  070%=      5-min Rain = 0
KTR1 190716Z 28004KT 08/03 A2993 RMK A01 T00800028  RH  069%=      5-min Rain = 0
KTR1 190717Z 28004KT 08/03 A2993 RMK A01 T00820027  RH  068%=      5-min Rain = 0
KTR1 190718Z 28004KT 08/03 A2993 RMK A01 T00840027  RH  067%=      5-min Rain = 0
KTR1 190719Z 28004KT 09/03 A2993 RMK A01 T00850027  RH  067%=      5-min Rain = 0
KTR1 190720Z 28004KT 09/03 A2993 RMK A01 T00870026  RH  066%=      5-min Rain = 0
KTR1 190721Z 28005KT 09/03 A2992 RMK A01 T00870026  RH  066%=      5-min Rain = 0
KTR1 190722Z 28005KT 09/03 A2992 RMK A01 T00870026  RH  065%=      5-min Rain = 0
KTR1 190723Z 28005KT 09/03 A2992 RMK A01 T00870026  RH  065%=      5-min Rain = 0
KTR1 190724Z 28004KT 09/03 A2993 RMK A01 T00870026  RH  065%=      5-min Rain = 0
KTR1 190725Z 27004KT 09/03 A2993 RMK A01 T00870025  RH  065%=      5-min Rain = 0
KTR1 190726Z 27004KT 09/03 A2993 RMK A01 T00880026  RH  065%=      5-min Rain = 0
KTR1 190727Z 27004KT 09/03 A2993 RMK A01 T00890026  RH  065%=      5-min Rain = 0
KTR1 190728Z 27004KT 09/03 A2993 RMK A01 T00890025  RH  064%=      5-min Rain = 0
KTR1 190729Z 27004KT 09/03 A2993 RMK A01 T00890025  RH  064%=      5-min Rain = 0
KTR1 190730Z 27004KT 09/03 A2993 RMK A01 T00890025  RH  064%=      5-min Rain = 0
KTR1 190731Z 28004KT 09/03 A2993 RMK A01 T00890025  RH  064%=      5-min Rain = 0
KTR1 190732Z 28004KT 09/02 A2993 RMK A01 T00880024  RH  064%=      5-min Rain = 0
KTR1 190733Z 28005KT 09/02 A2993 RMK A01 T00870024  RH  064%=      5-min Rain = 0
KTR1 190734Z 28005KT 09/02 A2993 RMK A01 T00870023  RH  064%=      5-min Rain = 0
KTR1 190735Z 28005KT 09/02 A2993 RMK A01 T00870023  RH  064%=      5-min Rain = 0
KTR1 190736Z 28005KT 09/02 A2993 RMK A01 T00850023  RH  065%=      5-min Rain = 0
KTR1 190737Z 28005KT 08/02 A2993 RMK A01 T00840023  RH  066%=      5-min Rain = 0
KTR1 190738Z 28005KT 08/02 A2993 RMK A01 T00810023  RH  067%=      5-min Rain = 0
KTR1 190739Z 28005KT 08/02 A2993 RMK A01 T00790023  RH  068%=      5-min Rain = 0
KTR1 190740Z 28005KT 08/02 A2993 RMK A01 T00780023  RH  068%=      5-min Rain = 0
KTR1 190741Z 27004KT 08/02 A2993 RMK A01 T00780023  RH  068%=      5-min Rain = 0
KTR1 190742Z 27004KT 08/02 A2993 RMK A01 T00770023  RH  069%=      5-min Rain = 0
KTR1 190743Z 27005KT 08/02 A2993 RMK A01 T00770024  RH  069%=      5-min Rain = 0
KTR1 190744Z 27005KT 08/02 A2993 RMK A01 T00770024  RH  069%=      5-min Rain = 0
KTR1 190745Z 27005KT 08/02 A2992 RMK A01 T00780024  RH  069%=      5-min Rain = 0
KTR1 190746Z 26005KT 08/02 A2992 RMK A01 T00780024  RH  069%=      5-min Rain = 0
KTR1 190747Z 26004KT 08/02 A2992 RMK A01 T00780024  RH  069%=      5-min Rain = 0
KTR1 190748Z 27004KT 08/02 A2992 RMK A01 T00780024  RH  069%=      5-min Rain = 0
KTR1 190749Z 27004KT 08/02 A2992 RMK A01 T00780024  RH  068%=      5-min Rain = 0
KTR1 190750Z 27004KT 08/02 A2992 RMK A01 T00780024  RH  068%=      5-min Rain = 0
KTR1 190751Z 27004KT 08/02 A2992 RMK A01 T00780023  RH  068%=      5-min Rain = 0
KTR1 190752Z 28004KT 08/02 A2992 RMK A01 T00780023  RH  068%=      5-min Rain = 0
KTR1 190753Z 28004KT 08/02 A2993 RMK A01 T00790024  RH  068%=      5-min Rain = 0
KTR1 190754Z 28004KT 08/02 A2993 RMK A01 T00780024  RH  069%=      5-min Rain = 0
KTR1 190755Z 28005KT 08/02 A2993 RMK A01 T00760024  RH  069%=      5-min Rain = 0
KTR1 190756Z 28005KT 07/02 A2993 RMK A01 T00740023  RH  070%=      5-min Rain = 0
KTR1 190757Z 29005KT 07/02 A2993 RMK A01 T00730023  RH  071%=      5-min Rain = 0
KTR1 190758Z 29005KT 07/02 A2993 RMK A01 T00720023  RH  071%=      5-min Rain = 0
KTR1 190759Z 29004KT 07/02 A2992 RMK A01 T00710024  RH  072%=      5-min Rain = 0
KTR1 190800Z 29004KT 07/02 A2992 RMK A01 T00710024  RH  072%=      5-min Rain = 0
KTR1 190801Z 29004KT 07/02 A2992 RMK A01 T00710024  RH  072%=      5-min Rain = 0
KTR1 190802Z 29004KT 07/02 A2992 RMK A01 T00700024  RH  072%=      5-min Rain = 0
KTR1 190803Z 29004KT 07/02 A2992 RMK A01 T00700023  RH  072%=      5-min Rain = 0
KTR1 190804Z 29005KT 07/02 A2992 RMK A01 T00690023  RH  073%=      5-min Rain = 0
KTR1 190805Z 29005KT 07/02 A2992 RMK A01 T00680023  RH  073%=      5-min Rain = 0
KTR1 190806Z 29005KT 07/02 A2992 RMK A01 T00680023  RH  073%=      5-min Rain = 0
KTR1 190807Z 29005KT 07/02 A2993 RMK A01 T00680023  RH  073%=      5-min Rain = 0
KTR1 190808Z 29005KT 07/02 A2993 RMK A01 T00680024  RH  074%=      5-min Rain = 0
KTR1 190809Z 29005KT 07/02 A2993 RMK A01 T00670024  RH  074%=      5-min Rain = 0
KTR1 190810Z 30005KT 07/02 A2993 RMK A01 T00670024  RH  074%=      5-min Rain = 0
KTR1 190811Z 30005KT 07/03 A2993 RMK A01 T00660025  RH  075%=      5-min Rain = 0
KTR1 190812Z 30005KT 07/03 A2993 RMK A01 T00650025  RH  075%=      5-min Rain = 0
KTR1 190813Z 30005KT 06/03 A2993 RMK A01 T00640025  RH  076%=      5-min Rain = 0
KTR1 190814Z 31005KT 06/03 A2993 RMK A01 T00640025  RH  076%=      5-min Rain = 0
KTR1 190815Z 31005KT 07/03 A2993 RMK A01 T00650026  RH  076%=      5-min Rain = 0
KTR1 190816Z 31005KT 07/03 A2993 RMK A01 T00660026  RH  076%=      5-min Rain = 0
KTR1 190817Z 31004KT 07/03 A2993 RMK A01 T00660026  RH  075%=      5-min Rain = 0
KTR1 190818Z 31004KT 07/03 A2993 RMK A01 T00660025  RH  075%=      5-min Rain = 0
KTR1 190819Z 32005KT 07/03 A2993 RMK A01 T00660025  RH  075%=      5-min Rain = 0
KTR1 190820Z 32005KT 07/03 A2993 RMK A01 T00670027  RH  075%=      5-min Rain = 0
KTR1 190821Z 32005KT 07/03 A2993 RMK A01 T00690027  RH  075%=      5-min Rain = 0
KTR1 190822Z 33004KT 07/03 A2993 RMK A01 T00710027  RH  074%=      5-min Rain = 0
KTR1 190823Z 33004KT 07/03 A2993 RMK A01 T00720027  RH  073%=      5-min Rain = 0
KTR1 190824Z 33005KT 07/03 A2993 RMK A01 T00730027  RH  073%=      5-min Rain = 0
KTR1 190825Z 33005KT 07/03 A2993 RMK A01 T00740027  RH  072%=      5-min Rain = 0
KTR1 190826Z 32005KT 08/03 A2993 RMK A01 T00750027  RH  071%=      5-min Rain = 0
KTR1 190827Z 32005KT 08/03 A2993 RMK A01 T00760026  RH  071%=      5-min Rain = 0
KTR1 190828Z 32005KT 08/03 A2993 RMK A01 T00770026  RH  070%=      5-min Rain = 0
KTR1 190829Z 32005KT 08/03 A2993 RMK A01 T00780025  RH  069%=      5-min Rain = 0
KTR1 190830Z 32005KT 08/03 A2993 RMK A01 T00780025  RH  069%=      5-min Rain = 0
KTR1 190831Z 31005KT 08/03 A2993 RMK A01 T00770025  RH  069%=      5-min Rain = 0
KTR1 190832Z 31004KT 08/02 A2993 RMK A01 T00770023  RH  069%=      5-min Rain = 0
KTR1 190833Z 31004KT 08/02 A2993 RMK A01 T00770022  RH  068%=      5-min Rain = 0
KTR1 190834Z 31004KT 08/02 A2993 RMK A01 T00780022  RH  068%=      5-min Rain = 0
KTR1 190835Z 31004KT 08/02 A2993 RMK A01 T00790023  RH  068%=      5-min Rain = 0
KTR1 190836Z 31004KT 08/02 A2993 RMK A01 T00780023  RH  068%=      5-min Rain = 0
KTR1 190837Z 31003KT 08/02 A2993 RMK A01 T00770022  RH  068%=      5-min Rain = 0
KTR1 190838Z 31004KT 08/02 A2993 RMK A01 T00770022  RH  068%=      5-min Rain = 0
KTR1 190839Z 30004KT 08/02 A2993 RMK A01 T00760021  RH  068%=      5-min Rain = 0
KTR1 190840Z 30004KT 08/02 A2992 RMK A01 T00760022  RH  068%=      5-min Rain = 0
KTR1 190841Z 30004KT 08/02 A2992 RMK A01 T00770022  RH  068%=      5-min Rain = 0
KTR1 190842Z 30005KT 08/02 A2992 RMK A01 T00780023  RH  068%=      5-min Rain = 0
KTR1 190843Z 29005KT 08/02 A2993 RMK A01 T00780022  RH  068%=      5-min Rain = 0
KTR1 190844Z 29005KT 08/02 A2993 RMK A01 T00760022  RH  068%=      5-min Rain = 0
KTR1 190845Z 30006KT 08/02 A2993 RMK A01 T00750022  RH  069%=      5-min Rain = 0
KTR1 190846Z 30005KT 08/02 A2993 RMK A01 T00750022  RH  069%=      5-min Rain = 0
KTR1 190847Z 30006KT 08/02 A2993 RMK A01 T00750023  RH  069%=      5-min Rain = 0
KTR1 190848Z 30006KT 08/02 A2993 RMK A01 T00750023  RH  069%=      5-min Rain = 0
KTR1 190849Z 30006KT 08/02 A2993 RMK A01 T00750024  RH  070%=      5-min Rain = 0
KTR1 190850Z 30006KT 07/02 A2993 RMK A01 T00740023  RH  070%=      5-min Rain = 0
KTR1 190851Z 30005KT 07/02 A2993 RMK A01 T00720023  RH  071%=      5-min Rain = 0
KTR1 190852Z 30006KT 07/02 A2993 RMK A01 T00710023  RH  072%=      5-min Rain = 0
KTR1 190853Z 30005KT 07/02 A2993 RMK A01 T00700023  RH  072%=      5-min Rain = 0
KTR1 190854Z 31005KT 07/02 A2993 RMK A01 T00690023  RH  072%=      5-min Rain = 0
KTR1 190855Z 31004KT 07/02 A2993 RMK A01 T00690023  RH  073%=      5-min Rain = 0
KTR1 190856Z 31004KT 07/02 A2993 RMK A01 T00690024  RH  073%=      5-min Rain = 0
KTR1 190857Z 30004KT 07/02 A2993 RMK A01 T00680024  RH  074%=      5-min Rain = 0
KTR1 190858Z 30005KT 07/02 A2993 RMK A01 T00670024  RH  074%=      5-min Rain = 0
KTR1 190859Z 30005KT 07/02 A2993 RMK A01 T00670024  RH  074%=      5-min Rain = 0
KTR1 190900Z 30005KT 07/02 A2993 RMK A01 T00660023  RH  074%=      5-min Rain = 0
KTR1 190901Z 30005KT 07/02 A2993 RMK A01 T00650023  RH  074%=      5-min Rain = 0
KTR1 190902Z 30005KT 07/02 A2993 RMK A01 T00650023  RH  074%=      5-min Rain = 0
KTR1 190903Z 30005KT 07/02 A2993 RMK A01 T00650022  RH  074%=      5-min Rain = 0
KTR1 190904Z 30005KT 07/02 A2993 RMK A01 T00650022  RH  074%=      5-min Rain = 0
KTR1 190905Z 30006KT 07/02 A2993 RMK A01 T00660023  RH  074%=      5-min Rain = 0
KTR1 190906Z 30006KT 07/02 A2993 RMK A01 T00680023  RH  073%=      5-min Rain = 0
KTR1 190907Z 30005KT 07/02 A2993 RMK A01 T00680024  RH  073%=      5-min Rain = 0
KTR1 190908Z 30005KT 07/02 A2993 RMK A01 T00680023  RH  073%=      5-min Rain = 0
KTR1 190909Z 30005KT 07/02 A2993 RMK A01 T00680023  RH  073%=      5-min Rain = 0
KTR1 190910Z 30005KT 07/02 A2993 RMK A01 T00670023  RH  073%=      5-min Rain = 0
KTR1 190911Z 30005KT 07/02 A2993 RMK A01 T00670023  RH  073%=      5-min Rain = 0
KTR1 190912Z 30005KT 07/02 A2993 RMK A01 T00670023  RH  074%=      5-min Rain = 0
KTR1 190913Z 30005KT 07/02 A2993 RMK A01 T00660023  RH  074%=      5-min Rain = 0
KTR1 190914Z 30005KT 07/02 A2993 RMK A01 T00650023  RH  074%=      5-min Rain = 0
KTR1 190915Z 30005KT 07/02 A2993 RMK A01 T00650022  RH  074%=      5-min Rain = 0
KTR1 190916Z 30005KT 07/02 A2993 RMK A01 T00650022  RH  074%=      5-min Rain = 0
KTR1 190917Z 30005KT 07/02 A2993 RMK A01 T00650022  RH  074%=      5-min Rain = 0
KTR1 190918Z 30005KT 07/02 A2993 RMK A01 T00650022  RH  074%=      5-min Rain = 0
KTR1 190919Z 29005KT 07/02 A2993 RMK A01 T00660022  RH  074%=      5-min Rain = 0
KTR1 190920Z 29005KT 07/02 A2993 RMK A01 T00670022  RH  073%=      5-min Rain = 0
KTR1 190921Z 29004KT 07/02 A2993 RMK A01 T00680022  RH  072%=      5-min Rain = 0
KTR1 190922Z 29004KT 07/02 A2993 RMK A01 T00690022  RH  072%=      5-min Rain = 0
KTR1 190923Z 30004KT 07/02 A2993 RMK A01 T00690022  RH  072%=      5-min Rain = 0
KTR1 190924Z 30004KT 07/02 A2993 RMK A01 T00690022  RH  072%=      5-min Rain = 0
KTR1 190925Z 30004KT 07/02 A2993 RMK A01 T00680022  RH  072%=      5-min Rain = 0
KTR1 190926Z 30004KT 07/02 A2993 RMK A01 T00680022  RH  072%=      5-min Rain = 0
KTR1 190927Z 31003KT 07/02 A2993 RMK A01 T00670022  RH  073%=      5-min Rain = 0
KTR1 190928Z 31003KT 07/02 A2993 RMK A01 T00660021  RH  073%=      5-min Rain = 0
KTR1 190929Z 30003KT 07/02 A2993 RMK A01 T00660021  RH  073%=      5-min Rain = 0
KTR1 190930Z 30003KT 07/02 A2993 RMK A01 T00660022  RH  073%=      5-min Rain = 0
KTR1 190931Z 30003KT 07/02 A2993 RMK A01 T00660022  RH  073%=      5-min Rain = 0
KTR1 190932Z 30003KT 07/02 A2993 RMK A01 T00660022  RH  073%=      5-min Rain = 0
KTR1 190933Z 31003KT 07/02 A2993 RMK A01 T00660022  RH  073%=      5-min Rain = 0
KTR1 190934Z 31004KT 07/02 A2993 RMK A01 T00650021  RH  074%=      5-min Rain = 0
KTR1 190935Z 30004KT 07/02 A2993 RMK A01 T00650021  RH  074%=      5-min Rain = 0
KTR1 190936Z 30004KT 06/02 A2993 RMK A01 T00640021  RH  074%=      5-min Rain = 0
KTR1 190937Z 31005KT 06/02 A2993 RMK A01 T00630021  RH  074%=      5-min Rain = 0
KTR1 190938Z 31005KT 06/02 A2993 RMK A01 T00630021  RH  074%=      5-min Rain = 0
KTR1 190939Z 30005KT 06/02 A2993 RMK A01 T00620021  RH  075%=      5-min Rain = 0
KTR1 190940Z 30006KT 06/02 A2993 RMK A01 T00620021  RH  075%=      5-min Rain = 0
KTR1 190941Z 30006KT 06/02 A2993 RMK A01 T00620021  RH  075%=      5-min Rain = 0
KTR1 190942Z 30006KT 06/02 A2993 RMK A01 T00610020  RH  075%=      5-min Rain = 0
KTR1 190943Z 30006KT 06/02 A2993 RMK A01 T00600020  RH  075%=      5-min Rain = 0
KTR1 190944Z 30006KT 06/02 A2993 RMK A01 T00590020  RH  076%=      5-min Rain = 0
KTR1 190945Z 30006KT 06/02 A2993 RMK A01 T00580020  RH  076%=      5-min Rain = 0
KTR1 190946Z 30006KT 06/02 A2993 RMK A01 T00590021  RH  077%=      5-min Rain = 0
KTR1 190947Z 30006KT 06/02 A2993 RMK A01 T00590021  RH  077%=      5-min Rain = 0
KTR1 190948Z 30006KT 06/02 A2993 RMK A01 T00590021  RH  077%=      5-min Rain = 0
KTR1 190949Z 30006KT 06/02 A2993 RMK A01 T00590021  RH  077%=      5-min Rain = 0
KTR1 190950Z 30006KT 06/02 A2993 RMK A01 T00590022  RH  077%=      5-min Rain = 0
KTR1 190951Z 30006KT 06/02 A2993 RMK A01 T00600022  RH  077%=      5-min Rain = 0
KTR1 190952Z 30006KT 06/02 A2993 RMK A01 T00600022  RH  076%=      5-min Rain = 0
KTR1 190953Z 30006KT 06/02 A2993 RMK A01 T00610022  RH  076%=      5-min Rain = 0
KTR1 190954Z 30006KT 06/02 A2993 RMK A01 T00610022  RH  076%=      5-min Rain = 0
KTR1 190955Z 30006KT 06/02 A2993 RMK A01 T00620022  RH  076%=      5-min Rain = 0
KTR1 190956Z 30006KT 06/02 A2993 RMK A01 T00620023  RH  076%=      5-min Rain = 0
KTR1 190957Z 30006KT 06/02 A2993 RMK A01 T00630022  RH  075%=      5-min Rain = 0
KTR1 190958Z 30006KT 06/02 A2993 RMK A01 T00630022  RH  075%=      5-min Rain = 0
KTR1 190959Z 30006KT 06/02 A2993 RMK A01 T00640023  RH  075%=      5-min Rain = 0
KTR1 191000Z 30006KT 07/02 A2993 RMK A01 T00650023  RH  074%=      5-min Rain = 0
KTR1 191001Z 30006KT 07/02 A2993 RMK A01 T00660023  RH  074%=      5-min Rain = 0
KTR1 191002Z 30006KT 07/02 A2993 RMK A01 T00670023  RH  073%=      5-min Rain = 0
KTR1 191003Z 30006KT 07/02 A2993 RMK A01 T00680023  RH  073%=      5-min Rain = 0
KTR1 191004Z 30006KT 07/02 A2993 RMK A01 T00680023  RH  073%=      5-min Rain = 0
KTR1 191005Z 31006KT 07/02 A2993 RMK A01 T00690023  RH  073%=      5-min Rain = 0
KTR1 191006Z 31006KT 07/02 A2993 RMK A01 T00690023  RH  073%=      5-min Rain = 0
KTR1 191007Z 31006KT 07/02 A2993 RMK A01 T00690023  RH  073%=      5-min Rain = 0
KTR1 191008Z 31005KT 07/02 A2993 RMK A01 T00690023  RH  073%=      5-min Rain = 0
KTR1 191009Z 31005KT 07/02 A2993 RMK A01 T00680023  RH  073%=      5-min Rain = 0
KTR1 191010Z 31005KT 07/02 A2993 RMK A01 T00670023  RH  073%=      5-min Rain = 0
KTR1 191011Z 31005KT 07/02 A2993 RMK A01 T00660023  RH  074%=      5-min Rain = 0
KTR1 191012Z 30005KT 07/02 A2993 RMK A01 T00660022  RH  074%=      5-min Rain = 0
KTR1 191013Z 30005KT 07/02 A2993 RMK A01 T00660022  RH  074%=      5-min Rain = 0
KTR1 191014Z 30005KT 07/02 A2993 RMK A01 T00650022  RH  074%=      5-min Rain = 0
KTR1 191015Z 30004KT 07/02 A2993 RMK A01 T00650022  RH  074%=      5-min Rain = 0
KTR1 191016Z 30004KT 07/02 A2993 RMK A01 T00650022  RH  074%=      5-min Rain = 0
KTR1 191017Z 31004KT 06/02 A2993 RMK A01 T00640022  RH  074%=      5-min Rain = 0
KTR1 191018Z 31004KT 06/02 A2993 RMK A01 T00640022  RH  074%=      5-min Rain = 0
KTR1 191019Z 31003KT 06/02 A2993 RMK A01 T00640022  RH  074%=      5-min Rain = 0
KTR1 191020Z 31003KT 06/02 A2993 RMK A01 T00640022  RH  074%=      5-min Rain = 0
KTR1 191021Z 31003KT 07/02 A2993 RMK A01 T00650022  RH  074%=      5-min Rain = 0
KTR1 191022Z 31004KT 07/02 A2993 RMK A01 T00650022  RH  074%=      5-min Rain = 0
KTR1 191023Z 30004KT 07/02 A2993 RMK A01 T00660022  RH  073%=      5-min Rain = 0
KTR1 191024Z 30004KT 07/02 A2993 RMK A01 T00660021  RH  073%=      5-min Rain = 0
KTR1 191025Z 30004KT 07/02 A2993 RMK A01 T00670022  RH  073%=      5-min Rain = 0
KTR1 191026Z 30004KT 07/02 A2993 RMK A01 T00670021  RH  072%=      5-min Rain = 0
KTR1 191027Z 30004KT 07/02 A2993 RMK A01 T00680021  RH  072%=      5-min Rain = 0
KTR1 191028Z 30004KT 07/02 A2993 RMK A01 T00680022  RH  072%=      5-min Rain = 0
KTR1 191029Z 30004KT 07/02 A2993 RMK A01 T00680021  RH  072%=      5-min Rain = 0
KTR1 191030Z 30004KT 07/02 A2993 RMK A01 T00690022  RH  072%=      5-min Rain = 0
KTR1 191031Z 30004KT 07/02 A2993 RMK A01 T00690022  RH  072%=      5-min Rain = 0
KTR1 191032Z 30004KT 07/02 A2994 RMK A01 T00690021  RH  072%=      5-min Rain = 0
KTR1 191033Z 30004KT 07/02 A2994 RMK A01 T00680021  RH  072%=      5-min Rain = 0
KTR1 191034Z 30004KT 07/02 A2994 RMK A01 T00680021  RH  072%=      5-min Rain = 0
KTR1 191035Z 30004KT 07/02 A2994 RMK A01 T00690022  RH  072%=      5-min Rain = 0
KTR1 191036Z 30004KT 07/02 A2994 RMK A01 T00690022  RH  072%=      5-min Rain = 0
KTR1 191037Z 30004KT 07/02 A2994 RMK A01 T00690022  RH  072%=      5-min Rain = 0
KTR1 191038Z 30004KT 07/02 A2994 RMK A01 T00690022  RH  072%=      5-min Rain = 0
KTR1 191039Z 29004KT 07/02 A2994 RMK A01 T00690022  RH  072%=      5-min Rain = 0
KTR1 191040Z 29004KT 07/02 A2994 RMK A01 T00690022  RH  072%=      5-min Rain = 0
KTR1 191041Z 29004KT 07/02 A2994 RMK A01 T00690021  RH  072%=      5-min Rain = 0
KTR1 191042Z 30004KT 07/02 A2994 RMK A01 T00690021  RH  071%=      5-min Rain = 0
KTR1 191043Z 30004KT 07/02 A2994 RMK A01 T00690020  RH  071%=      5-min Rain = 0
KTR1 191044Z 30004KT 07/02 A2994 RMK A01 T00680020  RH  071%=      5-min Rain = 0
KTR1 191045Z 30004KT 07/02 A2994 RMK A01 T00680020  RH  071%=      5-min Rain = 0
KTR1 191046Z 30004KT 07/02 A2994 RMK A01 T00680020  RH  072%=      5-min Rain = 0
KTR1 191047Z 29005KT 07/02 A2994 RMK A01 T00670020  RH  072%=      5-min Rain = 0
KTR1 191048Z 29005KT 07/02 A2994 RMK A01 T00670020  RH  072%=      5-min Rain = 0
KTR1 191049Z 30005KT 07/02 A2994 RMK A01 T00660019  RH  072%=      5-min Rain = 0
KTR1 191050Z 30005KT 07/02 A2994 RMK A01 T00660019  RH  072%=      5-min Rain = 0
KTR1 191051Z 30005KT 07/02 A2994 RMK A01 T00650018  RH  072%=      5-min Rain = 0
KTR1 191052Z 30005KT 06/02 A2994 RMK A01 T00640018  RH  073%=      5-min Rain = 0
KTR1 191053Z 30005KT 06/02 A2994 RMK A01 T00630018  RH  073%=      5-min Rain = 0
KTR1 191054Z 30006KT 06/02 A2994 RMK A01 T00610018  RH  074%=      5-min Rain = 0
KTR1 191055Z 30006KT 06/02 A2994 RMK A01 T00610019  RH  074%=      5-min Rain = 0
KTR1 191056Z 30006KT 06/02 A2994 RMK A01 T00600018  RH  074%=      5-min Rain = 0
KTR1 191057Z 30006KT 06/02 A2994 RMK A01 T00600018  RH  075%=      5-min Rain = 0
KTR1 191058Z 30006KT 06/02 A2994 RMK A01 T00600018  RH  075%=      5-min Rain = 0
KTR1 191059Z 30006KT 06/02 A2994 RMK A01 T00590018  RH  075%=      5-min Rain = 0
KTR1 191100Z 30006KT 06/02 A2994 RMK A01 T00590019  RH  075%=      5-min Rain = 0
KTR1 191101Z 30006KT 06/02 A2994 RMK A01 T00590019  RH  076%=      5-min Rain = 0
KTR1 191102Z 30006KT 06/02 A2994 RMK A01 T00590019  RH  076%=      5-min Rain = 0
KTR1 191103Z 30006KT 06/02 A2994 RMK A01 T00590019  RH  076%=      5-min Rain = 0
KTR1 191104Z 30006KT 06/02 A2994 RMK A01 T00590020  RH  076%=      5-min Rain = 0
KTR1 191105Z 30006KT 06/02 A2994 RMK A01 T00590020  RH  076%=      5-min Rain = 0
KTR1 191106Z 30006KT 06/02 A2994 RMK A01 T00600020  RH  076%=      5-min Rain = 0
KTR1 191107Z 30006KT 06/02 A2994 RMK A01 T00600020  RH  076%=      5-min Rain = 0
KTR1 191108Z 30006KT 06/02 A2994 RMK A01 T00610021  RH  075%=      5-min Rain = 0
KTR1 191109Z 30007KT 06/02 A2994 RMK A01 T00630022  RH  075%=      5-min Rain = 0
KTR1 191110Z 30007KT 06/02 A2994 RMK A01 T00640022  RH  075%=      5-min Rain = 0
KTR1 191111Z 30007KT 06/02 A2995 RMK A01 T00640022  RH  074%=      5-min Rain = 0
KTR1 191112Z 30007KT 07/02 A2995 RMK A01 T00650022  RH  074%=      5-min Rain = 0
KTR1 191113Z 30007KT 07/02 A2995 RMK A01 T00650022  RH  074%=      5-min Rain = 0
KTR1 191114Z 30007KT 07/02 A2995 RMK A01 T00660023  RH  074%=      5-min Rain = 0
KTR1 191115Z 30007KT 07/02 A2995 RMK A01 T00670023  RH  074%=      5-min Rain = 0
KTR1 191116Z 30007KT 07/02 A2995 RMK A01 T00670023  RH  073%=      5-min Rain = 0
KTR1 191117Z 30007KT 07/02 A2995 RMK A01 T00680023  RH  073%=      5-min Rain = 0
KTR1 191118Z 30007KT 07/02 A2995 RMK A01 T00680024  RH  073%=      5-min Rain = 0
KTR1 191119Z 30007KT 07/02 A2995 RMK A01 T00680023  RH  073%=      5-min Rain = 0
KTR1 191120Z 30007KT 07/02 A2995 RMK A01 T00680024  RH  073%=      5-min Rain = 0
KTR1 191121Z 30006KT 07/02 A2995 RMK A01 T00680024  RH  073%=      5-min Rain = 0
KTR1 191122Z 30006KT 07/02 A2994 RMK A01 T00680024  RH  074%=      5-min Rain = 0
KTR1 191123Z 30006KT 07/02 A2994 RMK A01 T00670023  RH  074%=      5-min Rain = 0
KTR1 191124Z 30006KT 07/02 A2994 RMK A01 T00670023  RH  073%=      5-min Rain = 0
KTR1 191125Z 30006KT 07/02 A2995 RMK A01 T00680023  RH  073%=      5-min Rain = 0
KTR1 191126Z 30006KT 07/02 A2995 RMK A01 T00680023  RH  073%=      5-min Rain = 0
KTR1 191127Z 30006KT 07/02 A2995 RMK A01 T00690023  RH  073%=      5-min Rain = 0
KTR1 191128Z 30006KT 07/02 A2995 RMK A01 T00690023  RH  073%=      5-min Rain = 0
KTR1 191129Z 30006KT 07/02 A2995 RMK A01 T00690023  RH  073%=      5-min Rain = 0
KTR1 191130Z 30006KT 07/02 A2995 RMK A01 T00690023  RH  073%=      5-min Rain = 0
KTR1 191131Z 29006KT 07/02 A2995 RMK A01 T00700024  RH  072%=      5-min Rain = 0
KTR1 191132Z 29006KT 07/02 A2995 RMK A01 T00700023  RH  072%=      5-min Rain = 0
KTR1 191133Z 30006KT 07/02 A2995 RMK A01 T00710023  RH  072%=      5-min Rain = 0
KTR1 191134Z 30006KT 07/02 A2995 RMK A01 T00710023  RH  071%=      5-min Rain = 0
KTR1 191135Z 30006KT 07/02 A2995 RMK A01 T00720023  RH  071%=      5-min Rain = 0
KTR1 191136Z 30006KT 07/02 A2995 RMK A01 T00720023  RH  071%=      5-min Rain = 0
KTR1 191137Z 30006KT 07/02 A2995 RMK A01 T00720023  RH  071%=      5-min Rain = 0
KTR1 191138Z 30006KT 07/02 A2995 RMK A01 T00720023  RH  071%=      5-min Rain = 0
KTR1 191139Z 31006KT 07/02 A2995 RMK A01 T00710023  RH  071%=      5-min Rain = 0
KTR1 191140Z 31006KT 07/02 A2995 RMK A01 T00710023  RH  072%=      5-min Rain = 0
KTR1 191141Z 31006KT 07/02 A2995 RMK A01 T00710023  RH  072%=      5-min Rain = 0
KTR1 191142Z 30006KT 07/02 A2995 RMK A01 T00700023  RH  072%=      5-min Rain = 0
KTR1 191143Z 30005KT 07/02 A2995 RMK A01 T00700023  RH  072%=      5-min Rain = 0
KTR1 191144Z 30005KT 07/02 A2995 RMK A01 T00690023  RH  072%=      5-min Rain = 0
KTR1 191145Z 30005KT 07/02 A2995 RMK A01 T00680023  RH  073%=      5-min Rain = 0
KTR1 191146Z 30005KT 07/02 A2995 RMK A01 T00680023  RH  073%=      5-min Rain = 0
KTR1 191147Z 30005KT 07/02 A2995 RMK A01 T00670023  RH  073%=      5-min Rain = 0
KTR1 191148Z 30005KT 07/02 A2995 RMK A01 T00670022  RH  073%=      5-min Rain = 0
KTR1 191149Z 30005KT 07/02 A2995 RMK A01 T00660022  RH  074%=      5-min Rain = 0
KTR1 191150Z 30005KT 07/02 A2995 RMK A01 T00650022  RH  074%=      5-min Rain = 0
KTR1 191151Z 30005KT 06/02 A2995 RMK A01 T00640022  RH  074%=      5-min Rain = 0
KTR1 191152Z 30004KT 06/02 A2995 RMK A01 T00640022  RH  074%=      5-min Rain = 0
KTR1 191153Z 30004KT 06/02 A2995 RMK A01 T00640022  RH  074%=      5-min Rain = 0
KTR1 191154Z 29004KT 06/02 A2995 RMK A01 T00640021  RH  074%=      5-min Rain = 0
KTR1 191155Z 30004KT 06/02 A2995 RMK A01 T00630021  RH  074%=      5-min Rain = 0
KTR1 191156Z 30004KT 06/02 A2995 RMK A01 T00630021  RH  074%=      5-min Rain = 0
KTR1 191157Z 30004KT 06/02 A2995 RMK A01 T00630021  RH  074%=      5-min Rain = 0
KTR1 191158Z 30004KT 06/02 A2995 RMK A01 T00620021  RH  075%=      5-min Rain = 0
KTR1 191159Z 30004KT 06/02 A2995 RMK A01 T00610020  RH  075%=      5-min Rain = 0
KTR1 191200Z 30004KT 06/02 A2995 RMK A01 T00610020  RH  075%=      5-min Rain = 0
KTR1 191201Z 30004KT 06/02 A2995 RMK A01 T00600020  RH  075%=      5-min Rain = 0
KTR1 191202Z 31004KT 06/02 A2995 RMK A01 T00610020  RH  075%=      5-min Rain = 0
KTR1 191203Z 31004KT 06/02 A2995 RMK A01 T00600020  RH  075%=      5-min Rain = 0
KTR1 191204Z 31004KT 06/02 A2995 RMK A01 T00600020  RH  075%=      5-min Rain = 0
KTR1 191205Z 31003KT 06/02 A2995 RMK A01 T00610021  RH  075%=      5-min Rain = 0
KTR1 191206Z 31003KT 06/02 A2995 RMK A01 T00610020  RH  075%=      5-min Rain = 0
KTR1 191207Z 31003KT 06/02 A2995 RMK A01 T00620020  RH  075%=      5-min Rain = 0
KTR1 191208Z 31003KT 06/02 A2995 RMK A01 T00630020  RH  074%=      5-min Rain = 0
KTR1 191209Z 31003KT 06/02 A2995 RMK A01 T00630020  RH  074%=      5-min Rain = 0
KTR1 191210Z 31003KT 06/02 A2995 RMK A01 T00640021  RH  074%=      5-min Rain = 0
KTR1 191211Z 31003KT 07/02 A2995 RMK A01 T00650021  RH  073%=      5-min Rain = 0
KTR1 191212Z 32003KT 07/02 A2995 RMK A01 T00660021  RH  073%=      5-min Rain = 0
KTR1 191213Z 31003KT 07/02 A2995 RMK A01 T00670021  RH  072%=      5-min Rain = 0
KTR1 191214Z 31003KT 07/02 A2995 RMK A01 T00680021  RH  072%=      5-min Rain = 0
KTR1 191215Z 31004KT 07/02 A2995 RMK A01 T00690021  RH  071%=      5-min Rain = 0
KTR1 191216Z 31003KT 07/02 A2995 RMK A01 T00690020  RH  071%=      5-min Rain = 0
KTR1 191217Z 32003KT 07/02 A2995 RMK A01 T00690020  RH  071%=      5-min Rain = 0
KTR1 191218Z 32003KT 07/02 A2995 RMK A01 T00690020  RH  071%=      5-min Rain = 0
KTR1 191219Z 32003KT 07/02 A2995 RMK A01 T00680020  RH  072%=      5-min Rain = 0
KTR1 191220Z 33003KT 07/02 A2995 RMK A01 T00670020  RH  072%=      5-min Rain = 0
KTR1 191221Z 33003KT 07/02 A2995 RMK A01 T00670020  RH  072%=      5-min Rain = 0
KTR1 191222Z 33004KT 07/02 A2995 RMK A01 T00670020  RH  072%=      5-min Rain = 0
KTR1 191223Z 33004KT 07/02 A2995 RMK A01 T00670019  RH  072%=      5-min Rain = 0
KTR1 191224Z 33004KT 07/02 A2995 RMK A01 T00670019  RH  071%=      5-min Rain = 0
KTR1 191225Z 33004KT 07/02 A2995 RMK A01 T00670018  RH  071%=      5-min Rain = 0
KTR1 191226Z 32004KT 07/02 A2995 RMK A01 T00680019  RH  071%=      5-min Rain = 0
KTR1 191227Z 32004KT 07/02 A2995 RMK A01 T00680018  RH  071%=      5-min Rain = 0
KTR1 191228Z 33005KT 07/02 A2995 RMK A01 T00670018  RH  071%=      5-min Rain = 0
KTR1 191229Z 33004KT 07/02 A2995 RMK A01 T00670018  RH  071%=      5-min Rain = 0
KTR1 191230Z 33004KT 07/02 A2995 RMK A01 T00670018  RH  071%=      5-min Rain = 0
KTR1 191231Z 33004KT 07/02 A2995 RMK A01 T00660018  RH  071%=      5-min Rain = 0
KTR1 191232Z 34004KT 07/02 A2995 RMK A01 T00650018  RH  072%=      5-min Rain = 0
KTR1 191233Z 34004KT 07/02 A2995 RMK A01 T00650019  RH  072%=      5-min Rain = 0
KTR1 191234Z 33004KT 07/02 A2995 RMK A01 T00650019  RH  072%=      5-min Rain = 0
KTR1 191235Z 33003KT 07/02 A2995 RMK A01 T00660019  RH  072%=      5-min Rain = 0
KTR1 191236Z 33004KT 07/02 A2995 RMK A01 T00660019  RH  072%=      5-min Rain = 0
KTR1 191237Z 33004KT 07/02 A2995 RMK A01 T00660019  RH  071%=      5-min Rain = 0
KTR1 191238Z 33004KT 07/02 A2995 RMK A01 T00670018  RH  071%=      5-min Rain = 0
KTR1 191239Z 33004KT 07/02 A2995 RMK A01 T00670018  RH  071%=      5-min Rain = 0
KTR1 191240Z 33004KT 07/02 A2995 RMK A01 T00670018  RH  071%=      5-min Rain = 0
KTR1 191241Z 34004KT 07/02 A2995 RMK A01 T00650018  RH  072%=      5-min Rain = 0
KTR1 191242Z 34004KT 06/02 A2995 RMK A01 T00630018  RH  073%=      5-min Rain = 0
KTR1 191243Z 33004KT 06/02 A2995 RMK A01 T00610018  RH  074%=      5-min Rain = 0
KTR1 191244Z 33005KT 06/02 A2995 RMK A01 T00600018  RH  074%=      5-min Rain = 0
KTR1 191245Z 33005KT 06/02 A2995 RMK A01 T00590018  RH  075%=      5-min Rain = 0
KTR1 191246Z 33005KT 06/02 A2995 RMK A01 T00590019  RH  075%=      5-min Rain = 0
KTR1 191247Z 33005KT 06/02 A2995 RMK A01 T00580019  RH  076%=      5-min Rain = 0
KTR1 191248Z 33005KT 06/02 A2995 RMK A01 T00580018  RH  076%=      5-min Rain = 0
KTR1 191249Z 33005KT 06/02 A2995 RMK A01 T00570018  RH  076%=      5-min Rain = 0
KTR1 191250Z 33005KT 06/02 A2995 RMK A01 T00570018  RH  076%=      5-min Rain = 0
KTR1 191251Z 33004KT 06/02 A2995 RMK A01 T00570018  RH  076%=      5-min Rain = 0
KTR1 191252Z 33004KT 06/02 A2995 RMK A01 T00560018  RH  076%=      5-min Rain = 0
KTR1 191253Z 33004KT 06/02 A2995 RMK A01 T00560018  RH  076%=      5-min Rain = 0
KTR1 191254Z 34004KT 06/02 A2995 RMK A01 T00560018  RH  076%=      5-min Rain = 0
KTR1 191255Z 33004KT 06/02 A2995 RMK A01 T00570019  RH  076%=      5-min Rain = 0
KTR1 191256Z 33004KT 06/02 A2995 RMK A01 T00570018  RH  076%=      5-min Rain = 0
KTR1 191257Z 33004KT 06/02 A2995 RMK A01 T00570018  RH  076%=      5-min Rain = 0
KTR1 191258Z 33004KT 06/02 A2995 RMK A01 T00570018  RH  076%=      5-min Rain = 0
KTR1 191259Z 33004KT 06/02 A2995 RMK A01 T00570019  RH  076%=      5-min Rain = 0
KTR1 191300Z 33004KT 06/02 A2995 RMK A01 T00580019  RH  076%=      5-min Rain = 0
KTR1 191301Z 33004KT 06/02 A2995 RMK A01 T00580020  RH  076%=      5-min Rain = 0
KTR1 191302Z 33004KT 06/02 A2995 RMK A01 T00590020  RH  076%=      5-min Rain = 0
KTR1 191303Z 32004KT 06/02 A2995 RMK A01 T00600020  RH  075%=      5-min Rain = 0
KTR1 191304Z 32004KT 06/02 A2995 RMK A01 T00610020  RH  075%=      5-min Rain = 0
KTR1 191305Z 32003KT 06/02 A2995 RMK A01 T00600019  RH  075%=      5-min Rain = 0
KTR1 191306Z 32003KT 06/02 A2995 RMK A01 T00610019  RH  075%=      5-min Rain = 0
KTR1 191307Z 32003KT 06/02 A2995 RMK A01 T00600018  RH  074%=      5-min Rain = 0
KTR1 191308Z 33003KT 06/02 A2995 RMK A01 T00580017  RH  075%=      5-min Rain = 0
KTR1 191309Z 33004KT 06/02 A2995 RMK A01 T00570017  RH  075%=      5-min Rain = 0
KTR1 191310Z 33004KT 06/02 A2995 RMK A01 T00570018  RH  076%=      5-min Rain = 0
KTR1 191311Z 33004KT 06/02 A2995 RMK A01 T00570019  RH  076%=      5-min Rain = 0
KTR1 191312Z 33004KT 06/02 A2995 RMK A01 T00580019  RH  076%=      5-min Rain = 0
KTR1 191313Z 33004KT 06/02 A2995 RMK A01 T00590019  RH  076%=      5-min Rain = 0
KTR1 191314Z 33005KT 06/02 A2995 RMK A01 T00590019  RH  075%=      5-min Rain = 0
KTR1 191315Z 33005KT 06/02 A2995 RMK A01 T00590018  RH  075%=      5-min Rain = 0
KTR1 191316Z 33005KT 06/02 A2995 RMK A01 T00570017  RH  075%=      5-min Rain = 0
KTR1 191317Z 32005KT 06/02 A2995 RMK A01 T00560016  RH  076%=      5-min Rain = 0
KTR1 191318Z 32005KT 05/02 A2995 RMK A01 T00540016  RH  076%=      5-min Rain = 0
KTR1 191319Z 32005KT 05/02 A2995 RMK A01 T00520015  RH  077%=      5-min Rain = 0
KTR1 191320Z 33005KT 05/02 A2995 RMK A01 T00510015  RH  078%=      5-min Rain = 0
KTR1 191321Z 32005KT 05/02 A2995 RMK A01 T00500015  RH  078%=      5-min Rain = 0
KTR1 191322Z 32005KT 05/02 A2995 RMK A01 T00500016  RH  079%=      5-min Rain = 0
KTR1 191323Z 32005KT 05/02 A2995 RMK A01 T00490016  RH  079%=      5-min Rain = 0
KTR1 191324Z 32005KT 05/02 A2995 RMK A01 T00490016  RH  079%=      5-min Rain = 0
KTR1 191325Z 32005KT 05/02 A2995 RMK A01 T00490016  RH  079%=      5-min Rain = 0
KTR1 191326Z 32005KT 05/02 A2995 RMK A01 T00480017  RH  080%=      5-min Rain = 0
KTR1 191327Z 33005KT 05/02 A2995 RMK A01 T00480017  RH  080%=      5-min Rain = 0
KTR1 191328Z 33005KT 05/02 A2995 RMK A01 T00480018  RH  081%=      5-min Rain = 0
KTR1 191329Z 33005KT 05/02 A2995 RMK A01 T00480018  RH  081%=      5-min Rain = 0
KTR1 191330Z 32005KT 05/02 A2995 RMK A01 T00490018  RH  080%=      5-min Rain = 0
KTR1 191331Z 32005KT 05/02 A2995 RMK A01 T00500018  RH  080%=      5-min Rain = 0
KTR1 191332Z 32005KT 05/02 A2995 RMK A01 T00500018  RH  080%=      5-min Rain = 0
KTR1 191333Z 32005KT 05/02 A2995 RMK A01 T00510018  RH  080%=      5-min Rain = 0
KTR1 191334Z 33005KT 05/02 A2995 RMK A01 T00510019  RH  080%=      5-min Rain = 0
KTR1 191335Z 33005KT 05/02 A2995 RMK A01 T00520020  RH  080%=      5-min Rain = 0
KTR1 191336Z 33004KT 05/02 A2995 RMK A01 T00520020  RH  080%=      5-min Rain = 0
KTR1 191337Z 33005KT 05/02 A2995 RMK A01 T00530020  RH  079%=      5-min Rain = 0
KTR1 191338Z 33004KT 05/02 A2995 RMK A01 T00540020  RH  079%=      5-min Rain = 0
KTR1 191339Z 33004KT 06/02 A2995 RMK A01 T00550021  RH  078%=      5-min Rain = 0
KTR1 191340Z 34003KT 06/02 A2995 RMK A01 T00560021  RH  078%=      5-min Rain = 0
KTR1 191341Z 34003KT 06/02 A2995 RMK A01 T00560021  RH  078%=      5-min Rain = 0
KTR1 191342Z 34003KT 06/02 A2995 RMK A01 T00570021  RH  077%=      5-min Rain = 0
KTR1 191343Z 34003KT 06/02 A2995 RMK A01 T00580021  RH  077%=      5-min Rain = 0
KTR1 191344Z 35003KT 06/02 A2995 RMK A01 T00580022  RH  077%=      5-min Rain = 0
KTR1 191345Z 34003KT 06/02 A2995 RMK A01 T00590022  RH  077%=      5-min Rain = 0
KTR1 191346Z 35003KT 06/02 A2995 RMK A01 T00600022  RH  077%=      5-min Rain = 0
KTR1 191347Z 34003KT 06/02 A2995 RMK A01 T00610023  RH  077%=      5-min Rain = 0
KTR1 191348Z 35003KT 06/02 A2995 RMK A01 T00620023  RH  076%=      5-min Rain = 0
KTR1 191349Z 35003KT 06/02 A2995 RMK A01 T00640023  RH  075%=      5-min Rain = 0
KTR1 191350Z 35003KT 07/03 A2995 RMK A01 T00650025  RH  075%=      5-min Rain = 0
KTR1 191351Z 36003KT 07/03 A2995 RMK A01 T00660027  RH  076%=      5-min Rain = 0
KTR1 191352Z 01002KT 07/03 A2995 RMK A01 T00680026  RH  075%=      5-min Rain = 0
KTR1 191353Z 02002KT 07/03 A2995 RMK A01 T00700027  RH  074%=      5-min Rain = 0
KTR1 191354Z 03001KT 07/03 A2995 RMK A01 T00710028  RH  074%=      5-min Rain = 0
KTR1 191355Z 05001KT 07/03 A2995 RMK A01 T00730030  RH  074%=      5-min Rain = 0
KTR1 191356Z 05000KT 08/03 A2995 RMK A01 T00750030  RH  073%=      5-min Rain = 0
KTR1 191357Z 05001KT 08/03 A2995 RMK A01 T00760029  RH  072%=      5-min Rain = 0
KTR1 191358Z 05000KT 08/03 A2995 RMK A01 T00770030  RH  072%=      5-min Rain = 0
KTR1 191359Z 05000KT 08/03 A2995 RMK A01 T00770030  RH  072%=      5-min Rain = 0
KTR1 191400Z 04000KT 08/03 A2995 RMK A01 T00770029  RH  071%=      5-min Rain = 0
KTR1 191401Z 00000KT 08/03 A2995 RMK A01 T00770027  RH  071%=      5-min Rain = 0
KTR1 191402Z 10000KT 08/03 A2995 RMK A01 T00780027  RH  070%=      5-min Rain = 0
KTR1 191403Z 10000KT 08/03 A2995 RMK A01 T00780028  RH  071%=      5-min Rain = 0
KTR1 191404Z 00000KT 08/03 A2995 RMK A01 T00780027  RH  070%=      5-min Rain = 0
KTR1 191405Z 00000KT 08/03 A2995 RMK A01 T00790026  RH  069%=      5-min Rain = 0
KTR1 191406Z 00000KT 08/02 A2995 RMK A01 T00790024  RH  068%=      5-min Rain = 0
KTR1 191407Z 00000KT 08/03 A2995 RMK A01 T00800025  RH  068%=      5-min Rain = 0
KTR1 191408Z 13000KT 08/02 A2995 RMK A01 T00810024  RH  067%=      5-min Rain = 0
KTR1 191409Z 13001KT 08/03 A2995 RMK A01 T00820026  RH  068%=      5-min Rain = 0
KTR1 191410Z 13001KT 08/03 A2995 RMK A01 T00820026  RH  068%=      5-min Rain = 0
KTR1 191411Z 13001KT 08/02 A2995 RMK A01 T00830023  RH  066%=      5-min Rain = 0
KTR1 191412Z 13001KT 08/02 A2995 RMK A01 T00830022  RH  065%=      5-min Rain = 0
KTR1 191413Z 14001KT 08/03 A2995 RMK A01 T00840026  RH  067%=      5-min Rain = 0
KTR1 191414Z 15001KT 08/02 A2995 RMK A01 T00840024  RH  066%=      5-min Rain = 0
KTR1 191415Z 14001KT 09/02 A2995 RMK A01 T00850019  RH  063%=      5-min Rain = 0
KTR1 191416Z 14000KT 09/02 A2995 RMK A01 T00850019  RH  063%=      5-min Rain = 0
KTR1 191417Z 17001KT 09/02 A2995 RMK A01 T00860019  RH  063%=      5-min Rain = 0
KTR1 191418Z 17001KT 09/02 A2995 RMK A01 T00870023  RH  064%=      5-min Rain = 0
KTR1 191419Z 17001KT 09/02 A2995 RMK A01 T00880023  RH  063%=      5-min Rain = 0
KTR1 191420Z 16001KT 09/02 A2995 RMK A01 T00890023  RH  063%=      5-min Rain = 0
KTR1 191421Z 16001KT 09/03 A2995 RMK A01 T00900025  RH  064%=      5-min Rain = 0
KTR1 191422Z 17002KT 09/03 A2995 RMK A01 T00910025  RH  063%=      5-min Rain = 0
KTR1 191423Z 16002KT 09/03 A2995 RMK A01 T00910025  RH  063%=      5-min Rain = 0
KTR1 191424Z 16002KT 09/02 A2995 RMK A01 T00920024  RH  063%=      5-min Rain = 0
KTR1 191425Z 17002KT 09/03 A2995 RMK A01 T00920025  RH  063%=      5-min Rain = 0
KTR1 191426Z 17003KT 09/03 A2995 RMK A01 T00920025  RH  063%=      5-min Rain = 0
KTR1 191427Z 17003KT 09/03 A2995 RMK A01 T00910025  RH  063%=      5-min Rain = 0
KTR1 191428Z 17003KT 09/02 A2995 RMK A01 T00920024  RH  063%=      5-min Rain = 0
KTR1 191429Z 17003KT 09/02 A2995 RMK A01 T00920024  RH  062%=      5-min Rain = 0
KTR1 191430Z 17003KT 09/03 A2995 RMK A01 T00930025  RH  063%=      5-min Rain = 0
KTR1 191431Z 17004KT 09/03 A2995 RMK A01 T00930026  RH  063%=      5-min Rain = 0
KTR1 191432Z 17005KT 09/03 A2995 RMK A01 T00940026  RH  063%=      5-min Rain = 0
KTR1 191433Z 17005KT 10/03 A2995 RMK A01 T00950028  RH  063%=      5-min Rain = 0
KTR1 191434Z 17004KT 10/03 A2995 RMK A01 T00960031  RH  064%=      5-min Rain = 0
KTR1 191435Z 17005KT 10/03 A2995 RMK A01 T00970030  RH  063%=      5-min Rain = 0
KTR1 191436Z 18005KT 10/03 A2995 RMK A01 T00990030  RH  062%=      5-min Rain = 0
KTR1 191437Z 18005KT 10/03 A2995 RMK A01 T01010029  RH  061%=      5-min Rain = 0
KTR1 191438Z 18006KT 10/03 A2995 RMK A01 T01010031  RH  062%=      5-min Rain = 0
KTR1 191439Z 18006KT 10/03 A2995 RMK A01 T01000030  RH  062%=      5-min Rain = 0
KTR1 191440Z 18006KT 10/03 A2995 RMK A01 T00990030  RH  062%=      5-min Rain = 0
KTR1 191441Z 18006KT 10/03 A2995 RMK A01 T00990030  RH  062%=      5-min Rain = 0
KTR1 191442Z 18006KT 10/03 A2995 RMK A01 T01000027  RH  061%=      5-min Rain = 0
KTR1 191443Z 18007KT 10/03 A2995 RMK A01 T01000028  RH  061%=      5-min Rain = 0
KTR1 191444Z 18007KT 10/03 A2995 RMK A01 T01000029  RH  061%=      5-min Rain = 0
KTR1 191445Z 19007KT 10/03 A2995 RMK A01 T01000029  RH  061%=      5-min Rain = 0
KTR1 191446Z 19007KT 10/03 A2995 RMK A01 T01000031  RH  062%=      5-min Rain = 0
KTR1 191447Z 19007KT 10/03 A2995 RMK A01 T01000031  RH  062%=      5-min Rain = 0
KTR1 191448Z 19007KT 10/03 A2996 RMK A01 T01000032  RH  063%=      5-min Rain = 0
KTR1 191449Z 19007KT 10/03 A2996 RMK A01 T01000032  RH  063%=      5-min Rain = 0
KTR1 191450Z 19008KT 10/03 A2996 RMK A01 T00990033  RH  063%=      5-min Rain = 0
KTR1 191451Z 19007KT 10/03 A2996 RMK A01 T00990032  RH  063%=      5-min Rain = 0
KTR1 191452Z 19008KT 10/03 A2996 RMK A01 T00990032  RH  063%=      5-min Rain = 0
KTR1 191453Z 19009KT 10/03 A2996 RMK A01 T01000031  RH  062%=      5-min Rain = 0
KTR1 191454Z 19008KT 10/03 A2995 RMK A01 T00980028  RH  062%=      5-min Rain = 0
KTR1 191455Z 19008KT 10/03 A2995 RMK A01 T00980030  RH  063%=      5-min Rain = 0
KTR1 191456Z 19008KT 10/03 A2995 RMK A01 T00980030  RH  062%=      5-min Rain = 0
KTR1 191457Z 19008KT 10/03 A2995 RMK A01 T00990032  RH  063%=      5-min Rain = 0
KTR1 191458Z 19008KT 10/03 A2995 RMK A01 T01000032  RH  062%=      5-min Rain = 0
KTR1 191459Z 19008KT 10/03 A2995 RMK A01 T01010032  RH  062%=      5-min Rain = 0
KTR1 191500Z 19007KT 10/03 A2995 RMK A01 T01020031  RH  062%=      5-min Rain = 0
KTR1 191501Z 19006KT 10/03 A2995 RMK A01 T01020032  RH  062%=      5-min Rain = 0
KTR1 191502Z 19006KT 10/04 A2995 RMK A01 T01040035  RH  062%=      5-min Rain = 0
KTR1 191503Z 19007KT 11/04 A2995 RMK A01 T01060036  RH  062%=      5-min Rain = 0
KTR1 191504Z 18007KT 11/04 A2995 RMK A01 T01060035  RH  061%=      5-min Rain = 0
KTR1 191505Z 18008KT 11/03 A2995 RMK A01 T01060033  RH  060%=      5-min Rain = 0
KTR1 191506Z 19008KT 11/03 A2995 RMK A01 T01060033  RH  061%=      5-min Rain = 0
KTR1 191507Z 19009KT 11/03 A2995 RMK A01 T01060033  RH  061%=      5-min Rain = 0
KTR1 191508Z 18009KT 11/03 A2995 RMK A01 T01060033  RH  061%=      5-min Rain = 0
KTR1 191509Z 18010KT 11/03 A2995 RMK A01 T01060031  RH  060%=      5-min Rain = 0
KTR1 191510Z 18009KT 11/03 A2995 RMK A01 T01060032  RH  060%=      5-min Rain = 0
KTR1 191511Z 18009KT 11/03 A2995 RMK A01 T01060031  RH  060%=      5-min Rain = 0
KTR1 191512Z 18008KT 11/03 A2995 RMK A01 T01070030  RH  059%=      5-min Rain = 0
KTR1 191513Z 19009KT 11/03 A2995 RMK A01 T01080031  RH  059%=      5-min Rain = 0
KTR1 191514Z 18008KT 11/03 A2995 RMK A01 T01080031  RH  059%=      5-min Rain = 0
KTR1 191515Z 18010KT 11/03 A2995 RMK A01 T01090030  RH  058%=      5-min Rain = 0
KTR1 191516Z 18008KT 11/03 A2996 RMK A01 T01090030  RH  058%=      5-min Rain = 0
KTR1 191517Z 18010KT 11/03 A2996 RMK A01 T01110032  RH  058%=      5-min Rain = 0
KTR1 191518Z 19009KT 11/03 A2996 RMK A01 T01110031  RH  058%=      5-min Rain = 0
KTR1 191519Z 19009KT 11/03 A2996 RMK A01 T01120033  RH  058%=      5-min Rain = 0
KTR1 191520Z 19010KT 11/03 A2996 RMK A01 T01140033  RH  058%=      5-min Rain = 0
KTR1 191521Z 19010KT 11/03 A2996 RMK A01 T01140030  RH  056%=      5-min Rain = 0
KTR1 191522Z 18010KT 11/03 A2996 RMK A01 T01140030  RH  056%=      5-min Rain = 0
KTR1 191523Z 18010KT 12/03 A2996 RMK A01 T01160033  RH  057%=      5-min Rain = 0
KTR1 191524Z 18010KT 12/04 A2996 RMK A01 T01190035  RH  056%=      5-min Rain = 0
KTR1 191525Z 19011KT 12/04 A2996 RMK A01 T01190035  RH  056%=      5-min Rain = 0
KTR1 191526Z 19012KT 12/04 A2996 RMK A01 T01200036  RH  056%=      5-min Rain = 0
KTR1 191527Z 19013KT 12/04 A2996 RMK A01 T01210035  RH  056%=      5-min Rain = 0
KTR1 191528Z 19011KT 12/04 A2996 RMK A01 T01210036  RH  056%=      5-min Rain = 0
KTR1 191529Z 19011KT 12/04 A2996 RMK A01 T01210037  RH  056%=      5-min Rain = 0
KTR1 191530Z 18010KT 12/04 A2996 RMK A01 T01220039  RH  057%=      5-min Rain = 0
KTR1 191531Z 18011KT 12/04 A2996 RMK A01 T01240039  RH  056%=      5-min Rain = 0
KTR1 191532Z 19013KT 13/04 A2996 RMK A01 T01250038  RH  055%=      5-min Rain = 0
KTR1 191533Z 19012KT 13/04 A2996 RMK A01 T01260037  RH  055%=      5-min Rain = 0
KTR1 191534Z 19011KT 13/04 A2996 RMK A01 T01270039  RH  055%=      5-min Rain = 0
KTR1 191535Z 19012KT 13/04 A2996 RMK A01 T01280038  RH  054%=      5-min Rain = 0
KTR1 191536Z 19011KT 13/04 A2996 RMK A01 T01300039  RH  054%=      5-min Rain = 0
KTR1 191537Z 19010KT 13/04 A2996 RMK A01 T01300037  RH  053%=      5-min Rain = 0
KTR1 191538Z 19009KT 13/04 A2996 RMK A01 T01320039  RH  053%=      5-min Rain = 0
KTR1 191539Z 19010KT 13/04 A2996 RMK A01 T01330038  RH  052%=      5-min Rain = 0
KTR1 191540Z 18010KT 13/04 A2996 RMK A01 T01330039  RH  053%=      5-min Rain = 0
KTR1 191541Z 18010KT 13/04 A2996 RMK A01 T01340039  RH  053%=      5-min Rain = 0
KTR1 191542Z 18009KT 14/04 A2996 RMK A01 T01360039  RH  052%=      5-min Rain = 0
KTR1 191543Z 18010KT 14/04 A2996 RMK A01 T01370040  RH  052%=      5-min Rain = 0
KTR1 191544Z 18011KT 14/04 A2996 RMK A01 T01380038  RH  051%=      5-min Rain = 0
KTR1 191545Z 18010KT 14/04 A2996 RMK A01 T01390038  RH  051%=      5-min Rain = 0
KTR1 191546Z 19009KT 14/04 A2996 RMK A01 T01390038  RH  050%=      5-min Rain = 0
KTR1 191547Z 19009KT 14/04 A2996 RMK A01 T01410040  RH  051%=      5-min Rain = 0
KTR1 191548Z 18009KT 14/04 A2996 RMK A01 T01430039  RH  050%=      5-min Rain = 0
KTR1 191549Z 19010KT 14/04 A2997 RMK A01 T01440038  RH  049%=      5-min Rain = 0
KTR1 191550Z 19009KT 15/04 A2997 RMK A01 T01450038  RH  049%=      5-min Rain = 0
KTR1 191551Z 17008KT 15/04 A2997 RMK A01 T01460041  RH  049%=      5-min Rain = 0
KTR1 191552Z 17009KT 15/04 A2997 RMK A01 T01480042  RH  049%=      5-min Rain = 0
KTR1 191553Z 17009KT 15/04 A2997 RMK A01 T01490041  RH  048%=      5-min Rain = 0
KTR1 191554Z 17008KT 15/04 A2997 RMK A01 T01500039  RH  047%=      5-min Rain = 0
KTR1 191555Z 18009KT 15/04 A2996 RMK A01 T01510042  RH  048%=      5-min Rain = 0
KTR1 191556Z 17009KT 15/04 A2996 RMK A01 T01530041  RH  047%=      5-min Rain = 0
KTR1 191557Z 17009KT 15/04 A2996 RMK A01 T01530040  RH  047%=      5-min Rain = 0
KTR1 191558Z 18008KT 15/04 A2996 RMK A01 T01540041  RH  047%=      5-min Rain = 0
KTR1 191559Z 18009KT 15/04 A2996 RMK A01 T01540039  RH  046%=      5-min Rain = 0
KTR1 191600Z 17009KT 16/04 A2996 RMK A01 T01550039  RH  046%=      5-min Rain = 0
KTR1 191601Z 18008KT 16/04 A2996 RMK A01 T01550040  RH  046%=      5-min Rain = 0
KTR1 191602Z 17009KT 16/04 A2996 RMK A01 T01560041  RH  046%=      5-min Rain = 0
KTR1 191603Z 17009KT 16/04 A2996 RMK A01 T01570041  RH  046%=      5-min Rain = 0
KTR1 191604Z 17008KT 16/04 A2996 RMK A01 T01570042  RH  046%=      5-min Rain = 0
KTR1 191605Z 17010KT 16/04 A2996 RMK A01 T01590042  RH  046%=      5-min Rain = 0
KTR1 191606Z 17009KT 16/04 A2996 RMK A01 T01600040  RH  045%=      5-min Rain = 0
KTR1 191607Z 17009KT 16/04 A2996 RMK A01 T01600042  RH  045%=      5-min Rain = 0
KTR1 191608Z 16011KT 16/04 A2996 RMK A01 T01620038  RH  044%=      5-min Rain = 0
KTR1 191609Z 17009KT 16/04 A2996 RMK A01 T01620037  RH  043%=      5-min Rain = 0
KTR1 191610Z 16008KT 16/04 A2996 RMK A01 T01620038  RH  044%=      5-min Rain = 0
KTR1 191611Z 17009KT 16/04 A2996 RMK A01 T01630037  RH  043%=      5-min Rain = 0
KTR1 191612Z 17009KT 16/04 A2996 RMK A01 T01630039  RH  044%=      5-min Rain = 0
KTR1 191613Z 17008KT 16/04 A2996 RMK A01 T01620039  RH  044%=      5-min Rain = 0
KTR1 191614Z 17009KT 16/04 A2996 RMK A01 T01620041  RH  044%=      5-min Rain = 0
KTR1 191615Z 17009KT 16/04 A2996 RMK A01 T01640040  RH  044%=      5-min Rain = 0
KTR1 191616Z 17010KT 16/04 A2996 RMK A01 T01640040  RH  043%=      5-min Rain = 0
KTR1 191617Z 16009KT 17/04 A2996 RMK A01 T01650040  RH  043%=      5-min Rain = 0
KTR1 191618Z 16009KT 17/04 A2996 RMK A01 T01670041  RH  043%=      5-min Rain = 0
KTR1 191619Z 16008KT 17/04 A2996 RMK A01 T01670041  RH  043%=      5-min Rain = 0
KTR1 191620Z 16008KT 17/04 A2996 RMK A01 T01680041  RH  043%=      5-min Rain = 0
KTR1 191621Z 16008KT 17/04 A2996 RMK A01 T01690042  RH  043%=      5-min Rain = 0
KTR1 191622Z 16008KT 17/04 A2996 RMK A01 T01710042  RH  042%=      5-min Rain = 0
KTR1 191623Z 16008KT 17/04 A2996 RMK A01 T01720042  RH  042%=      5-min Rain = 0
KTR1 191624Z 16009KT 17/04 A2996 RMK A01 T01730041  RH  041%=      5-min Rain = 0
KTR1 191625Z 16009KT 17/04 A2996 RMK A01 T01730040  RH  041%=      5-min Rain = 0
KTR1 191626Z 16009KT 17/04 A2996 RMK A01 T01730042  RH  042%=      5-min Rain = 0
KTR1 191627Z 16009KT 17/04 A2996 RMK A01 T01730041  RH  042%=      5-min Rain = 0
KTR1 191628Z 16009KT 17/04 A2996 RMK A01 T01730041  RH  041%=      5-min Rain = 0
KTR1 191629Z 16010KT 17/04 A2996 RMK A01 T01740040  RH  041%=      5-min Rain = 0
KTR1 191630Z 16009KT 17/04 A2996 RMK A01 T01740040  RH  041%=      5-min Rain = 0
KTR1 191631Z 16009KT 18/04 A2996 RMK A01 T01750041  RH  041%=      5-min Rain = 0
KTR1 191632Z 17009KT 18/04 A2996 RMK A01 T01750041  RH  041%=      5-min Rain = 0
KTR1 191633Z 17009KT 18/04 A2996 RMK A01 T01760041  RH  041%=      5-min Rain = 0
KTR1 191634Z 16008KT 18/04 A2996 RMK A01 T01760042  RH  041%=      5-min Rain = 0
KTR1 191635Z 16008KT 18/04 A2996 RMK A01 T01780044  RH  041%=      5-min Rain = 0
KTR1 191636Z 16008KT 18/04 A2996 RMK A01 T01790043  RH  040%=      5-min Rain = 0
KTR1 191637Z 16006KT 18/04 A2996 RMK A01 T01800044  RH  041%=      5-min Rain = 0
KTR1 191638Z 16007KT 18/05 A2996 RMK A01 T01800045  RH  041%=      5-min Rain = 0
KTR1 191639Z 17008KT 18/05 A2996 RMK A01 T01820045  RH  040%=      5-min Rain = 0
KTR1 191640Z 17008KT 18/04 A2996 RMK A01 T01820042  RH  040%=      5-min Rain = 0
KTR1 191641Z 16008KT 18/04 A2995 RMK A01 T01790043  RH  040%=      5-min Rain = 0
KTR1 191642Z 16008KT 18/04 A2995 RMK A01 T01790041  RH  040%=      5-min Rain = 0
KTR1 191643Z 16007KT 18/04 A2995 RMK A01 T01800043  RH  040%=      5-min Rain = 0
KTR1 191644Z 16007KT 18/04 A2995 RMK A01 T01820044  RH  040%=      5-min Rain = 0
KTR1 191645Z 17006KT 19/05 A2995 RMK A01 T01850046  RH  040%=      5-min Rain = 0
KTR1 191646Z 17007KT 19/05 A2995 RMK A01 T01860045  RH  039%=      5-min Rain = 0
KTR1 191647Z 17008KT 19/04 A2995 RMK A01 T01860043  RH  039%=      5-min Rain = 0
KTR1 191648Z 17007KT 19/04 A2995 RMK A01 T01870043  RH  039%=      5-min Rain = 0
KTR1 191649Z 16006KT 19/04 A2995 RMK A01 T01870044  RH  039%=      5-min Rain = 0
KTR1 191650Z 17006KT 19/05 A2995 RMK A01 T01880046  RH  039%=      5-min Rain = 0
KTR1 191651Z 18006KT 19/05 A2995 RMK A01 T01890045  RH  039%=      5-min Rain = 0
KTR1 191652Z 18006KT 19/05 A2995 RMK A01 T01900045  RH  038%=      5-min Rain = 0
KTR1 191653Z 17005KT 19/05 A2995 RMK A01 T01890046  RH  039%=      5-min Rain = 0
KTR1 191654Z 16006KT 19/05 A2995 RMK A01 T01900045  RH  039%=      5-min Rain = 0
KTR1 191655Z 16006KT 19/05 A2995 RMK A01 T01910045  RH  038%=      5-min Rain = 0
KTR1 191656Z 15006KT 19/04 A2995 RMK A01 T01920043  RH  037%=      5-min Rain = 0
KTR1 191657Z 17006KT 19/04 A2995 RMK A01 T01920044  RH  038%=      5-min Rain = 0
KTR1 191658Z 17005KT 19/04 A2995 RMK A01 T01930044  RH  038%=      5-min Rain = 0
KTR1 191659Z 15005KT 19/05 A2995 RMK A01 T01940046  RH  038%=      5-min Rain = 0
KTR1 191700Z 15007KT 20/04 A2995 RMK A01 T01970044  RH  037%=      5-min Rain = 0
KTR1 191701Z 16007KT 20/04 A2995 RMK A01 T01970043  RH  036%=      5-min Rain = 0
KTR1 191702Z 17006KT 20/04 A2995 RMK A01 T01980043  RH  036%=      5-min Rain = 0
KTR1 191703Z 16006KT 20/04 A2995 RMK A01 T01980044  RH  036%=      5-min Rain = 0
KTR1 191704Z 16006KT 20/04 A2995 RMK A01 T01990043  RH  036%=      5-min Rain = 0
KTR1 191705Z 16008KT 20/04 A2995 RMK A01 T01990043  RH  036%=      5-min Rain = 0
KTR1 191706Z 17007KT 20/04 A2995 RMK A01 T01990043  RH  036%=      5-min Rain = 0
KTR1 191707Z 16007KT 20/05 A2995 RMK A01 T02010045  RH  036%=      5-min Rain = 0
KTR1 191708Z 16008KT 20/05 A2995 RMK A01 T02020046  RH  036%=      5-min Rain = 0
KTR1 191709Z 17006KT 20/04 A2995 RMK A01 T02030043  RH  035%=      5-min Rain = 0
KTR1 191710Z 16007KT 20/04 A2995 RMK A01 T02030044  RH  035%=      5-min Rain = 0
KTR1 191711Z 15006KT 20/04 A2995 RMK A01 T02030043  RH  035%=      5-min Rain = 0
KTR1 191712Z 16008KT 20/05 A2995 RMK A01 T02040045  RH  035%=      5-min Rain = 0
KTR1 191713Z 16007KT 21/04 A2994 RMK A01 T02050044  RH  035%=      5-min Rain = 0
KTR1 191714Z 16008KT 21/05 A2994 RMK A01 T02050047  RH  035%=      5-min Rain = 0
KTR1 191715Z 16007KT 21/05 A2994 RMK A01 T02060046  RH  035%=      5-min Rain = 0
KTR1 191716Z 17008KT 21/05 A2994 RMK A01 T02070047  RH  035%=      5-min Rain = 0
KTR1 191717Z 16008KT 21/05 A2994 RMK A01 T02070046  RH  035%=      5-min Rain = 0
KTR1 191718Z 16007KT 21/05 A2994 RMK A01 T02080048  RH  035%=      5-min Rain = 0
KTR1 191719Z 17009KT 21/05 A2994 RMK A01 T02090047  RH  034%=      5-min Rain = 0
KTR1 191720Z 17008KT 21/05 A2994 RMK A01 T02090046  RH  034%=      5-min Rain = 0
KTR1 191721Z 17008KT 21/05 A2994 RMK A01 T02070047  RH  035%=      5-min Rain = 0
KTR1 191722Z 16008KT 21/05 A2994 RMK A01 T02070048  RH  035%=      5-min Rain = 0
KTR1 191723Z 18010KT 21/05 A2994 RMK A01 T02070048  RH  035%=      5-min Rain = 0
KTR1 191724Z 18009KT 21/05 A2994 RMK A01 T02090051  RH  036%=      5-min Rain = 0
KTR1 191725Z 19010KT 21/05 A2994 RMK A01 T02100051  RH  035%=      5-min Rain = 0
KTR1 191726Z 19008KT 21/05 A2994 RMK A01 T02100049  RH  035%=      5-min Rain = 0
KTR1 191727Z 19008KT 21/05 A2994 RMK A01 T02090050  RH  035%=      5-min Rain = 0
KTR1 191728Z 18009KT 21/05 A2994 RMK A01 T02090053  RH  036%=      5-min Rain = 0
KTR1 191729Z 19008KT 21/05 A2994 RMK A01 T02110051  RH  035%=      5-min Rain = 0
KTR1 191730Z 19008KT 21/05 A2994 RMK A01 T02110052  RH  036%=      5-min Rain = 0
KTR1 191731Z 20008KT 21/05 A2994 RMK A01 T02110053  RH  036%=      5-min Rain = 0
KTR1 191732Z 18008KT 21/05 A2994 RMK A01 T02130054  RH  036%=      5-min Rain = 0
KTR1 191733Z 18007KT 21/05 A2994 RMK A01 T02140053  RH  035%=      5-min Rain = 0
KTR1 191734Z 17007KT 22/05 A2994 RMK A01 T02150054  RH  035%=      5-min Rain = 0
KTR1 191735Z 17009KT 22/05 A2993 RMK A01 T02150053  RH  035%=      5-min Rain = 0
KTR1 191736Z 18010KT 22/05 A2993 RMK A01 T02160054  RH  035%=      5-min Rain = 0
KTR1 191737Z 18010KT 22/05 A2993 RMK A01 T02160054  RH  035%=      5-min Rain = 0
KTR1 191738Z 17009KT 22/05 A2993 RMK A01 T02160054  RH  035%=      5-min Rain = 0
KTR1 191739Z 17008KT 22/06 A2993 RMK A01 T02160055  RH  035%=      5-min Rain = 0
KTR1 191740Z 19008KT 22/06 A2993 RMK A01 T02170057  RH  035%=      5-min Rain = 0
KTR1 191741Z 20008KT 22/05 A2993 RMK A01 T02190054  RH  034%=      5-min Rain = 0
KTR1 191742Z 19008KT 22/06 A2993 RMK A01 T02190056  RH  035%=      5-min Rain = 0
KTR1 191743Z 17006KT 22/06 A2993 RMK A01 T02200056  RH  034%=      5-min Rain = 0
KTR1 191744Z 18008KT 22/06 A2993 RMK A01 T02210055  RH  034%=      5-min Rain = 0
KTR1 191745Z 19010KT 22/05 A2993 RMK A01 T02210054  RH  034%=      5-min Rain = 0
KTR1 191746Z 18010KT 22/05 A2993 RMK A01 T02200054  RH  034%=      5-min Rain = 0
KTR1 191747Z 19011KT 22/06 A2993 RMK A01 T02190055  RH  034%=      5-min Rain = 0
KTR1 191748Z 19010KT 22/05 A2993 RMK A01 T02190054  RH  034%=      5-min Rain = 0
KTR1 191749Z 19011KT 22/05 A2993 RMK A01 T02180054  RH  034%=      5-min Rain = 0
KTR1 191750Z 20011KT 22/05 A2993 RMK A01 T02190054  RH  034%=      5-min Rain = 0
KTR1 191751Z 21010KT 22/06 A2993 RMK A01 T02190055  RH  035%=      5-min Rain = 0
KTR1 191752Z 20010KT 22/06 A2993 RMK A01 T02200056  RH  035%=      5-min Rain = 0
KTR1 191753Z 19008KT 22/06 A2993 RMK A01 T02220058  RH  035%=      5-min Rain = 0
KTR1 191754Z 18009KT 22/06 A2992 RMK A01 T02240057  RH  034%=      5-min Rain = 0
KTR1 191755Z 19009KT 22/06 A2992 RMK A01 T02230056  RH  034%=      5-min Rain = 0
KTR1 191756Z 20009KT 22/06 A2992 RMK A01 T02230057  RH  034%=      5-min Rain = 0
KTR1 191757Z 20009KT 23/06 A2992 RMK A01 T02250057  RH  034%=      5-min Rain = 0
KTR1 191758Z 19010KT 22/06 A2992 RMK A01 T02240057  RH  034%=      5-min Rain = 0
KTR1 191759Z 18008KT 22/06 A2992 RMK A01 T02240058  RH  034%=      5-min Rain = 0
KTR1 191800Z 17009KT 22/06 A2992 RMK A01 T02240057  RH  034%=      5-min Rain = 0
KTR1 191801Z 17011KT 23/06 A2992 RMK A01 T02250058  RH  034%=      5-min Rain = 0
KTR1 191802Z 19012KT 23/06 A2992 RMK A01 T02260057  RH  033%=      5-min Rain = 0
KTR1 191803Z 18010KT 23/06 A2992 RMK A01 T02260059  RH  034%=      5-min Rain = 0
KTR1 191804Z 18010KT 23/06 A2992 RMK A01 T02270058  RH  033%=      5-min Rain = 0
KTR1 191805Z 19010KT 23/06 A2992 RMK A01 T02280058  RH  033%=      5-min Rain = 0
KTR1 191806Z 19012KT 23/06 A2992 RMK A01 T02280058  RH  033%=      5-min Rain = 0
KTR1 191807Z 19010KT 23/06 A2992 RMK A01 T02280057  RH  033%=      5-min Rain = 0
KTR1 191808Z 19009KT 23/06 A2992 RMK A01 T02270056  RH  033%=      5-min Rain = 0
KTR1 191809Z 20008KT 23/06 A2992 RMK A01 T02250057  RH  034%=      5-min Rain = 0
KTR1 191810Z 21010KT 23/06 A2992 RMK A01 T02260059  RH  034%=      5-min Rain = 0
KTR1 191811Z 21009KT 23/06 A2992 RMK A01 T02260058  RH  034%=      5-min Rain = 0
KTR1 191812Z 20010KT 22/06 A2992 RMK A01 T02240058  RH  034%=      5-min Rain = 0
KTR1 191813Z 20011KT 23/06 A2992 RMK A01 T02250059  RH  034%=      5-min Rain = 0
KTR1 191814Z 20012KT 23/06 A2992 RMK A01 T02270059  RH  034%=      5-min Rain = 0
KTR1 191815Z 19009KT 23/06 A2992 RMK A01 T02280058  RH  033%=      5-min Rain = 0
KTR1 191816Z 20009KT 23/06 A2992 RMK A01 T02280058  RH  033%=      5-min Rain = 0
KTR1 191817Z 20011KT 23/06 A2991 RMK A01 T02280058  RH  033%=      5-min Rain = 0
KTR1 191818Z 19011KT 23/06 A2991 RMK A01 T02280059  RH  033%=      5-min Rain = 0
KTR1 191819Z 19011KT 23/06 A2991 RMK A01 T02290058  RH  033%=      5-min Rain = 0
KTR1 191820Z 19009KT 23/06 A2991 RMK A01 T02290059  RH  033%=      5-min Rain = 0
KTR1 191821Z 19009KT 23/06 A2991 RMK A01 T02300059  RH  033%=      5-min Rain = 0
KTR1 191822Z 19011KT 23/06 A2991 RMK A01 T02310058  RH  033%=      5-min Rain = 0
KTR1 191823Z 19011KT 23/06 A2991 RMK A01 T02310058  RH  033%=      5-min Rain = 0
KTR1 191824Z 20011KT 23/06 A2991 RMK A01 T02310057  RH  032%=      5-min Rain = 0
KTR1 191825Z 20010KT 23/06 A2991 RMK A01 T02290057  RH  033%=      5-min Rain = 0
KTR1 191826Z 20009KT 23/06 A2991 RMK A01 T02280058  RH  033%=      5-min Rain = 0
KTR1 191827Z 20011KT 23/06 A2991 RMK A01 T02280059  RH  033%=      5-min Rain = 0
KTR1 191828Z 19009KT 23/06 A2991 RMK A01 T02270057  RH  033%=      5-min Rain = 0
KTR1 191829Z 20007KT 23/06 A2991 RMK A01 T02260058  RH  034%=      5-min Rain = 0
KTR1 191830Z 19008KT 23/06 A2991 RMK A01 T02260060  RH  034%=      5-min Rain = 0
KTR1 191831Z 19011KT 23/06 A2991 RMK A01 T02270059  RH  033%=      5-min Rain = 0
KTR1 191832Z 17011KT 23/06 A2991 RMK A01 T02270059  RH  034%=      5-min Rain = 0
KTR1 191833Z 16010KT 23/06 A2991 RMK A01 T02270059  RH  034%=      5-min Rain = 0
KTR1 191834Z 16010KT 23/06 A2991 RMK A01 T02270058  RH  034%=      5-min Rain = 0
KTR1 191835Z 16009KT 23/06 A2991 RMK A01 T02250058  RH  034%=      5-min Rain = 0
KTR1 191836Z 17009KT 23/06 A2991 RMK A01 T02250059  RH  034%=      5-min Rain = 0
KTR1 191837Z 18010KT 23/06 A2991 RMK A01 T02250059  RH  034%=      5-min Rain = 0
KTR1 191838Z 18010KT 23/06 A2991 RMK A01 T02260058  RH  034%=      5-min Rain = 0
KTR1 191839Z 17009KT 22/06 A299 RMK A01 T02240057  RH  034%=      5-min Rain = 0
KTR1 191840Z 18008KT 22/06 A299 RMK A01 T02220057  RH  034%=      5-min Rain = 0
KTR1 191841Z 17009KT 22/06 A299 RMK A01 T02220057  RH  034%=      5-min Rain = 0
KTR1 191842Z 18011KT 22/06 A299 RMK A01 T02240058  RH  034%=      5-min Rain = 0
KTR1 191843Z 18009KT 23/06 A299 RMK A01 T02260059  RH  034%=      5-min Rain = 0
KTR1 191844Z 18008KT 23/06 A299 RMK A01 T02260059  RH  034%=      5-min Rain = 0
KTR1 191845Z 17008KT 23/06 A299 RMK A01 T02270059  RH  034%=      5-min Rain = 0
KTR1 191846Z 16008KT 23/06 A299 RMK A01 T02290061  RH  034%=      5-min Rain = 0
KTR1 191847Z 17009KT 23/06 A299 RMK A01 T02320060  RH  033%=      5-min Rain = 0
KTR1 191848Z 17009KT 23/06 A299 RMK A01 T02320060  RH  033%=      5-min Rain = 0
KTR1 191849Z 16009KT 23/06 A299 RMK A01 T02340061  RH  033%=      5-min Rain = 0
KTR1 191850Z 17009KT 23/06 A299 RMK A01 T02340059  RH  032%=      5-min Rain = 0
KTR1 191851Z 17009KT 23/06 A299 RMK A01 T02340060  RH  032%=      5-min Rain = 0
KTR1 191852Z 19009KT 23/06 A299 RMK A01 T02340060  RH  032%=      5-min Rain = 0
KTR1 191853Z 15008KT 23/06 A299 RMK A01 T02340061  RH  033%=      5-min Rain = 0
KTR1 191854Z 16008KT 24/06 A299 RMK A01 T02350060  RH  032%=      5-min Rain = 0
KTR1 191855Z 18008KT 24/06 A299 RMK A01 T02350062  RH  033%=      5-min Rain = 0
KTR1 191856Z 19008KT 24/06 A299 RMK A01 T02360060  RH  032%=      5-min Rain = 0
KTR1 191857Z 20009KT 24/06 A2989 RMK A01 T02350062  RH  033%=      5-min Rain = 0
KTR1 191858Z 20010KT 24/06 A2989 RMK A01 T02360061  RH  032%=      5-min Rain = 0
KTR1 191859Z 19010KT 24/06 A2989 RMK A01 T02360061  RH  032%=      5-min Rain = 0
KTR1 191900Z 19009KT 24/06 A2989 RMK A01 T02360062  RH  032%=      5-min Rain = 0
KTR1 191901Z 18009KT 24/06 A2989 RMK A01 T02370063  RH  033%=      5-min Rain = 0
KTR1 191902Z 17009KT 24/06 A2989 RMK A01 T02390063  RH  032%=      5-min Rain = 0
KTR1 191903Z 16007KT 24/06 A2989 RMK A01 T02400063  RH  032%=      5-min Rain = 0
KTR1 191904Z 17008KT 24/06 A2989 RMK A01 T02410063  RH  032%=      5-min Rain = 0
KTR1 191905Z 19007KT 24/06 A2989 RMK A01 T02410062  RH  032%=      5-min Rain = 0
KTR1 191906Z 18005KT 24/06 A2989 RMK A01 T02400063  RH  032%=      5-min Rain = 0
KTR1 191907Z 17005KT 24/06 A2989 RMK A01 T02420064  RH  032%=      5-min Rain = 0
KTR1 191908Z 15008KT 24/07 A2989 RMK A01 T02440065  RH  032%=      5-min Rain = 0
KTR1 191909Z 15009KT 24/06 A2989 RMK A01 T02440063  RH  031%=      5-min Rain = 0
KTR1 191910Z 17006KT 24/06 A2989 RMK A01 T02410063  RH  032%=      5-min Rain = 0
KTR1 191911Z 17006G11KT 24/07 A2989 RMK A01 T02420066  RH  032%=      5-min Rain = 0
KTR1 191912Z 16009KT 25/07 A2989 RMK A01 T02450066  RH  032%=      5-min Rain = 0
KTR1 191913Z 18008KT 25/06 A2988 RMK A01 T02460064  RH  031%=      5-min Rain = 0
KTR1 191914Z 17007KT 25/06 A2988 RMK A01 T02450064  RH  031%=      5-min Rain = 0
KTR1 191915Z 18007KT 25/06 A2988 RMK A01 T02450064  RH  031%=      5-min Rain = 0
KTR1 191916Z 17006KT 24/07 A2988 RMK A01 T02440065  RH  032%=      5-min Rain = 0
KTR1 191917Z 15007KT 24/06 A2988 RMK A01 T02440064  RH  031%=      5-min Rain = 0
KTR1 191918Z 16006KT 24/06 A2988 RMK A01 T02420063  RH  031%=      5-min Rain = 0
KTR1 191919Z 16009KT 24/06 A2988 RMK A01 T02420063  RH  032%=      5-min Rain = 0
KTR1 191920Z 16008KT 24/06 A2988 RMK A01 T02430064  RH  032%=      5-min Rain = 0
KTR1 191921Z 17008KT 24/06 A2988 RMK A01 T02430063  RH  031%=      5-min Rain = 0
KTR1 191922Z 16010KT 24/06 A2988 RMK A01 T02410062  RH  032%=      5-min Rain = 0
KTR1 191923Z 16013KT 24/06 A2988 RMK A01 T02420059  RH  031%=      5-min Rain = 0
KTR1 191924Z 17013KT 25/06 A2988 RMK A01 T02460061  RH  030%=      5-min Rain = 0
KTR1 191925Z 18013KT 25/06 A2988 RMK A01 T02490059  RH  030%=      5-min Rain = 0
KTR1 191926Z 18013KT 25/06 A2988 RMK A01 T02490057  RH  029%=      5-min Rain = 0
KTR1 191927Z 18011KT 25/06 A2987 RMK A01 T02480056  RH  029%=      5-min Rain = 0
KTR1 191928Z 18010KT 25/06 A2987 RMK A01 T02480057  RH  029%=      5-min Rain = 0
KTR1 191929Z 18010KT 25/06 A2987 RMK A01 T02490059  RH  030%=      5-min Rain = 0
KTR1 191930Z 17012KT 25/06 A2987 RMK A01 T02500059  RH  029%=      5-min Rain = 0
KTR1 191931Z 18011KT 25/06 A2987 RMK A01 T02500057  RH  029%=      5-min Rain = 0
KTR1 191932Z 17008KT 25/06 A2987 RMK A01 T02480058  RH  029%=      5-min Rain = 0
KTR1 191933Z 17008KT 25/06 A2987 RMK A01 T02510060  RH  029%=      5-min Rain = 0
KTR1 191934Z 17010KT 26/06 A2987 RMK A01 T02550060  RH  029%=      5-min Rain = 0
KTR1 191935Z 16013KT 26/06 A2987 RMK A01 T02560059  RH  028%=      5-min Rain = 0
KTR1 191936Z 16011KT 26/06 A2987 RMK A01 T02550057  RH  028%=      5-min Rain = 0
KTR1 191937Z 17010KT 25/06 A2987 RMK A01 T02520058  RH  029%=      5-min Rain = 0
KTR1 191938Z 17011KT 25/06 A2987 RMK A01 T02530060  RH  029%=      5-min Rain = 0
KTR1 191939Z 17010KT 25/06 A2987 RMK A01 T02540058  RH  028%=      5-min Rain = 0
KTR1 191940Z 17009KT 25/06 A2987 RMK A01 T02530057  RH  028%=      5-min Rain = 0
KTR1 191941Z 16010KT 25/06 A2987 RMK A01 T02520058  RH  029%=      5-min Rain = 0
KTR1 191942Z 17013KT 25/06 A2986 RMK A01 T02540055  RH  028%=      5-min Rain = 0
KTR1 191943Z 18014KT 25/05 A2986 RMK A01 T02540051  RH  027%=      5-min Rain = 0
KTR1 191944Z 17014KT 25/05 A2986 RMK A01 T02520054  RH  028%=      5-min Rain = 0
KTR1 191945Z 16012KT 25/05 A2986 RMK A01 T02520053  RH  028%=      5-min Rain = 0
KTR1 191946Z 17015KT 25/05 A2986 RMK A01 T02520054  RH  028%=      5-min Rain = 0
KTR1 191947Z 17014KT 25/05 A2986 RMK A01 T02520053  RH  028%=      5-min Rain = 0
KTR1 191948Z 17016KT 25/05 A2986 RMK A01 T02510052  RH  028%=      5-min Rain = 0
KTR1 191949Z 17016KT 25/05 A2986 RMK A01 T02490050  RH  028%=      5-min Rain = 0
KTR1 191950Z 17014KT 25/05 A2986 RMK A01 T02480048  RH  028%=      5-min Rain = 0
KTR1 191951Z 17013KT 25/05 A2986 RMK A01 T02480050  RH  028%=      5-min Rain = 0
KTR1 191952Z 17012KT 25/05 A2986 RMK A01 T02490053  RH  028%=      5-min Rain = 0
KTR1 191953Z 17014G19KT 25/05 A2986 RMK A01 T02510053  RH  028%=      5-min Rain = 0
KTR1 191954Z 17012KT 25/05 A2986 RMK A01 T02520051  RH  027%=      5-min Rain = 0
KTR1 191955Z 18015KT 25/05 A2986 RMK A01 T02520051  RH  027%=      5-min Rain = 0
KTR1 191956Z 16013KT 25/05 A2986 RMK A01 T02510050  RH  027%=      5-min Rain = 0
KTR1 191957Z 17012KT 25/05 A2985 RMK A01 T02510050  RH  027%=      5-min Rain = 0
KTR1 191958Z 18011KT 25/05 A2985 RMK A01 T02520052  RH  028%=      5-min Rain = 0
KTR1 191959Z 17011KT 25/05 A2985 RMK A01 T02540053  RH  027%=      5-min Rain = 0
KTR1 192000Z 16014KT 26/06 A2985 RMK A01 T02550056  RH  028%=      5-min Rain = 0
KTR1 192001Z 16015KT 26/06 A2985 RMK A01 T02560055  RH  028%=      5-min Rain = 0
KTR1 192002Z 17015KT 26/06 A2985 RMK A01 T02550055  RH  028%=      5-min Rain = 0
KTR1 192003Z 16015KT 26/06 A2985 RMK A01 T02550056  RH  028%=      5-min Rain = 0
KTR1 192004Z 16013G18KT 25/06 A2985 RMK A01 T02540055  RH  028%=      5-min Rain = 0
KTR1 192005Z 16014KT 25/06 A2985 RMK A01 T02540056  RH  028%=      5-min Rain = 0
KTR1 192006Z 16011KT 25/06 A2985 RMK A01 T02530055  RH  028%=      5-min Rain = 0
KTR1 192007Z 16014KT 25/06 A2985 RMK A01 T02520057  RH  029%=      5-min Rain = 0
KTR1 192008Z 16013KT 25/06 A2985 RMK A01 T02530057  RH  028%=      5-min Rain = 0
KTR1 192009Z 16015KT 25/06 A2985 RMK A01 T02540058  RH  029%=      5-min Rain = 0
KTR1 192010Z 16016KT 25/06 A2985 RMK A01 T02540057  RH  028%=      5-min Rain = 0
KTR1 192011Z 16014KT 25/06 A2985 RMK A01 T02520055  RH  028%=      5-min Rain = 0
KTR1 192012Z 16013KT 25/06 A2985 RMK A01 T02510056  RH  028%=      5-min Rain = 0
KTR1 192013Z 15013KT 25/06 A2985 RMK A01 T02520057  RH  029%=      5-min Rain = 0
KTR1 192014Z 15014KT 25/06 A2985 RMK A01 T02540058  RH  028%=      5-min Rain = 0
KTR1 192015Z 16016KT 25/06 A2984 RMK A01 T02540057  RH  028%=      5-min Rain = 0
KTR1 192016Z 15014KT 25/06 A2984 RMK A01 T02540055  RH  028%=      5-min Rain = 0
KTR1 192017Z 16014KT 25/06 A2984 RMK A01 T02540056  RH  028%=      5-min Rain = 0
KTR1 192018Z 15016KT 25/06 A2984 RMK A01 T02540056  RH  028%=      5-min Rain = 0
KTR1 192019Z 14017KT 25/05 A2984 RMK A01 T02540054  RH  028%=      5-min Rain = 0
KTR1 192020Z 15013G18KT 25/05 A2984 RMK A01 T02520052  RH  028%=      5-min Rain = 0
KTR1 192021Z 15014KT 25/05 A2984 RMK A01 T02510054  RH  028%=      5-min Rain = 0
KTR1 192022Z 17016G21KT 25/05 A2984 RMK A01 T02530054  RH  028%=      5-min Rain = 0
KTR1 192023Z 17018KT 25/05 A2984 RMK A01 T02540050  RH  027%=      5-min Rain = 0
KTR1 192024Z 17019KT 26/05 A2984 RMK A01 T02550048  RH  026%=      5-min Rain = 0
KTR1 192025Z 16019KT 26/05 A2984 RMK A01 T02550046  RH  026%=      5-min Rain = 0
KTR1 192026Z 16017KT 26/05 A2984 RMK A01 T02560047  RH  026%=      5-min Rain = 0
KTR1 192027Z 16021KT 26/05 A2984 RMK A01 T02570047  RH  026%=      5-min Rain = 0
KTR1 192028Z 17022KT 26/05 A2984 RMK A01 T02570045  RH  026%=      5-min Rain = 0
KTR1 192029Z 16020KT 26/05 A2984 RMK A01 T02550046  RH  026%=      5-min Rain = 0
KTR1 192030Z 17020KT 26/05 A2984 RMK A01 T02550047  RH  026%=      5-min Rain = 0
KTR1 192031Z 18021KT 26/05 A2984 RMK A01 T02550046  RH  026%=      5-min Rain = 0
KTR1 192032Z 18019KT 25/05 A2984 RMK A01 T02540047  RH  026%=      5-min Rain = 0
KTR1 192033Z 17019KT 25/05 A2984 RMK A01 T02540048  RH  027%=      5-min Rain = 0
KTR1 192034Z 18019KT 25/05 A2984 RMK A01 T02530049  RH  027%=      5-min Rain = 0
KTR1 192035Z 18018KT 25/05 A2984 RMK A01 T02530049  RH  027%=      5-min Rain = 0
KTR1 192036Z 18016KT 26/05 A2984 RMK A01 T02550051  RH  027%=      5-min Rain = 0
KTR1 192037Z 17017KT 26/05 A2984 RMK A01 T02560050  RH  027%=      5-min Rain = 0
KTR1 192038Z 18015KT 26/05 A2984 RMK A01 T02560052  RH  027%=      5-min Rain = 0
KTR1 192039Z 18012G17KT 26/05 A2984 RMK A01 T02570052  RH  027%=      5-min Rain = 0
KTR1 192040Z 18015G20KT 26/05 A2984 RMK A01 T02590054  RH  027%=      5-min Rain = 0
KTR1 192041Z 18015KT 26/05 A2984 RMK A01 T02590052  RH  026%=      5-min Rain = 0
KTR1 192042Z 18016G21KT 26/05 A2984 RMK A01 T02580053  RH  027%=      5-min Rain = 0
KTR1 192043Z 18017KT 26/05 A2983 RMK A01 T02580052  RH  027%=      5-min Rain = 0
KTR1 192044Z 18014KT 26/05 A2983 RMK A01 T02560052  RH  027%=      5-min Rain = 0
KTR1 192045Z 17013KT 26/05 A2984 RMK A01 T02570054  RH  027%=      5-min Rain = 0
KTR1 192046Z 16018KT 26/05 A2983 RMK A01 T02590054  RH  027%=      5-min Rain = 0
KTR1 192047Z 17019KT 26/05 A2983 RMK A01 T02580052  RH  027%=      5-min Rain = 0
KTR1 192048Z 17018KT 26/05 A2983 RMK A01 T02560051  RH  027%=      5-min Rain = 0
KTR1 192049Z 16018KT 26/05 A2983 RMK A01 T02550052  RH  027%=      5-min Rain = 0
KTR1 192050Z 16017KT 26/05 A2983 RMK A01 T02550051  RH  027%=      5-min Rain = 0
KTR1 192051Z 17016KT 25/05 A2983 RMK A01 T02540051  RH  027%=      5-min Rain = 0
KTR1 192052Z 17016KT 26/05 A2983 RMK A01 T02550051  RH  027%=      5-min Rain = 0
KTR1 192053Z 18014KT 26/05 A2983 RMK A01 T02550052  RH  027%=      5-min Rain = 0
KTR1 192054Z 19016KT 26/05 A2983 RMK A01 T02560053  RH  027%=      5-min Rain = 0
KTR1 192055Z 18017KT 26/05 A2983 RMK A01 T02560052  RH  027%=      5-min Rain = 0
KTR1 192056Z 18017KT 26/05 A2983 RMK A01 T02550053  RH  027%=      5-min Rain = 0
KTR1 192057Z 18017KT 26/05 A2983 RMK A01 T02550051  RH  027%=      5-min Rain = 0
KTR1 192058Z 17015KT 25/05 A2983 RMK A01 T02540052  RH  027%=      5-min Rain = 0
KTR1 192059Z 17016KT 25/05 A2983 RMK A01 T02540053  RH  027%=      5-min Rain = 0
KTR1 192100Z 17014KT 26/05 A2983 RMK A01 T02560054  RH  027%=      5-min Rain = 0
KTR1 192101Z 18014KT 26/05 A2983 RMK A01 T02570054  RH  027%=      5-min Rain = 0
KTR1 192102Z 18014KT 26/05 A2983 RMK A01 T02580054  RH  027%=      5-min Rain = 0
KTR1 192103Z 17014KT 26/05 A2983 RMK A01 T02570054  RH  027%=      5-min Rain = 0
KTR1 192104Z 17016KT 26/06 A2983 RMK A01 T02560055  RH  027%=      5-min Rain = 0
KTR1 192105Z 18014KT 26/05 A2983 RMK A01 T02570054  RH  027%=      5-min Rain = 0
KTR1 192106Z 17015KT 26/06 A2983 RMK A01 T02570055  RH  027%=      5-min Rain = 0
KTR1 192107Z 16016KT 26/05 A2983 RMK A01 T02570053  RH  027%=      5-min Rain = 0
KTR1 192108Z 16014KT 26/05 A2983 RMK A01 T02560053  RH  027%=      5-min Rain = 0
KTR1 192109Z 17014KT 26/05 A2983 RMK A01 T02550054  RH  027%=      5-min Rain = 0
KTR1 192110Z 18011KT 26/05 A2983 RMK A01 T02550054  RH  027%=      5-min Rain = 0
KTR1 192111Z 18014KT 26/06 A2983 RMK A01 T02570055  RH  027%=      5-min Rain = 0
KTR1 192112Z 16015KT 26/06 A2983 RMK A01 T02570055  RH  027%=      5-min Rain = 0
KTR1 192113Z 17015KT 26/05 A2983 RMK A01 T02570054  RH  027%=      5-min Rain = 0
KTR1 192114Z 16013KT 26/05 A2983 RMK A01 T02570054  RH  027%=      5-min Rain = 0
KTR1 192115Z 17014KT 26/05 A2983 RMK A01 T02560054  RH  027%=      5-min Rain = 0
KTR1 192116Z 17017KT 26/05 A2982 RMK A01 T02560054  RH  027%=      5-min Rain = 0
KTR1 192117Z 17015KT 25/06 A2983 RMK A01 T02540055  RH  028%=      5-min Rain = 0
KTR1 192118Z 16016KT 26/06 A2982 RMK A01 T02550056  RH  028%=      5-min Rain = 0
KTR1 192119Z 17016KT 26/06 A2982 RMK A01 T02560055  RH  028%=      5-min Rain = 0
KTR1 192120Z 16017KT 26/06 A2982 RMK A01 T02560055  RH  028%=      5-min Rain = 0
KTR1 192121Z 16018KT 25/05 A2982 RMK A01 T02540054  RH  028%=      5-min Rain = 0
KTR1 192122Z 17017KT 25/06 A2982 RMK A01 T02540055  RH  028%=      5-min Rain = 0
KTR1 192123Z 16017KT 25/05 A2982 RMK A01 T02530054  RH  028%=      5-min Rain = 0
KTR1 192124Z 17018KT 25/06 A2982 RMK A01 T02540056  RH  028%=      5-min Rain = 0
KTR1 192125Z 17016KT 25/06 A2982 RMK A01 T02540055  RH  028%=      5-min Rain = 0
KTR1 192126Z 17018KT 25/06 A2982 RMK A01 T02540055  RH  028%=      5-min Rain = 0
KTR1 192127Z 16016KT 25/05 A2982 RMK A01 T02540054  RH  028%=      5-min Rain = 0
KTR1 192128Z 16016KT 25/06 A2982 RMK A01 T02530055  RH  028%=      5-min Rain = 0
KTR1 192129Z 16015KT 25/06 A2982 RMK A01 T02530056  RH  028%=      5-min Rain = 0
KTR1 192130Z 16015KT 26/06 A2982 RMK A01 T02550056  RH  028%=      5-min Rain = 0
KTR1 192131Z 16016KT 26/05 A2982 RMK A01 T02550054  RH  028%=      5-min Rain = 0
KTR1 192132Z 17017KT 25/05 A2982 RMK A01 T02540054  RH  028%=      5-min Rain = 0
KTR1 192133Z 17017KT 25/05 A2982 RMK A01 T02540054  RH  028%=      5-min Rain = 0
KTR1 192134Z 17015KT 25/05 A2982 RMK A01 T02540054  RH  028%=      5-min Rain = 0
KTR1 192135Z 16016KT 25/05 A2982 RMK A01 T02540054  RH  028%=      5-min Rain = 0
KTR1 192136Z 16015KT 25/06 A2982 RMK A01 T02540055  RH  028%=      5-min Rain = 0
KTR1 192137Z 16017KT 26/06 A2982 RMK A01 T02550055  RH  028%=      5-min Rain = 0
KTR1 192138Z 16017KT 26/06 A2982 RMK A01 T02550055  RH  028%=      5-min Rain = 0
KTR1 192139Z 16015KT 26/06 A2982 RMK A01 T02550055  RH  028%=      5-min Rain = 0
KTR1 192140Z 16014KT 26/06 A2982 RMK A01 T02550055  RH  028%=      5-min Rain = 0
KTR1 192141Z 16013KT 25/05 A2982 RMK A01 T02540054  RH  028%=      5-min Rain = 0
KTR1 192142Z 16011KT 25/06 A2982 RMK A01 T02540055  RH  028%=      5-min Rain = 0
KTR1 192143Z 17013KT 25/06 A2982 RMK A01 T02540055  RH  028%=      5-min Rain = 0
KTR1 192144Z 17013KT 25/06 A2982 RMK A01 T02540055  RH  028%=      5-min Rain = 0
KTR1 192145Z 16011KT 26/06 A2982 RMK A01 T02550057  RH  028%=      5-min Rain = 0
KTR1 192146Z 16011KT 26/06 A2982 RMK A01 T02560057  RH  028%=      5-min Rain = 0
KTR1 192147Z 16010G15KT 26/06 A2982 RMK A01 T02570057  RH  028%=      5-min Rain = 0
KTR1 192148Z 16013KT 26/06 A2981 RMK A01 T02580056  RH  027%=      5-min Rain = 0
KTR1 192149Z 16012KT 26/06 A2981 RMK A01 T02580056  RH  027%=      5-min Rain = 0
KTR1 192150Z 16013KT 26/06 A2981 RMK A01 T02570055  RH  027%=      5-min Rain = 0
KTR1 192151Z 16014KT 26/06 A2981 RMK A01 T02570055  RH  027%=      5-min Rain = 0
KTR1 192152Z 16013KT 26/05 A2981 RMK A01 T02570054  RH  027%=      5-min Rain = 0
KTR1 192153Z 16013KT 26/06 A2981 RMK A01 T02570055  RH  027%=      5-min Rain = 0
KTR1 192154Z 17015KT 26/05 A2981 RMK A01 T02570053  RH  027%=      5-min Rain = 0
KTR1 192155Z 17013KT 26/05 A2981 RMK A01 T02560052  RH  027%=      5-min Rain = 0
KTR1 192156Z 17013KT 26/05 A2981 RMK A01 T02560053  RH  027%=      5-min Rain = 0
KTR1 192157Z 17016KT 26/05 A2981 RMK A01 T02560052  RH  027%=      5-min Rain = 0
KTR1 192158Z 15016KT 26/05 A2981 RMK A01 T02560046  RH  026%=      5-min Rain = 0
KTR1 192159Z 16014KT 26/05 A2981 RMK A01 T02560047  RH  026%=      5-min Rain = 0
KTR1 192200Z 17014KT 26/05 A2981 RMK A01 T02560049  RH  026%=      5-min Rain = 0
KTR1 192201Z 16017KT 26/05 A2981 RMK A01 T02560046  RH  026%=      5-min Rain = 0
KTR1 192202Z 15017KT 26/04 A2981 RMK A01 T02570042  RH  025%=      5-min Rain = 0
KTR1 192203Z 15017KT 26/04 A2981 RMK A01 T02580040  RH  025%=      5-min Rain = 0
KTR1 192204Z 16017KT 26/04 A2981 RMK A01 T02580039  RH  024%=      5-min Rain = 0
KTR1 192205Z 16016KT 26/04 A2981 RMK A01 T02580039  RH  024%=      5-min Rain = 0
KTR1 192206Z 16015KT 26/04 A2981 RMK A01 T02580039  RH  024%=      5-min Rain = 0
KTR1 192207Z 16015KT 26/04 A298 RMK A01 T02580039  RH  024%=      5-min Rain = 0
KTR1 192208Z 16016KT 26/04 A298 RMK A01 T02570037  RH  024%=      5-min Rain = 0
KTR1 192209Z 16016KT 26/04 A298 RMK A01 T02580037  RH  024%=      5-min Rain = 0
KTR1 192210Z 16015KT 26/04 A298 RMK A01 T02580037  RH  024%=      5-min Rain = 0
KTR1 192211Z 15015KT 26/04 A298 RMK A01 T02570037  RH  024%=      5-min Rain = 0
KTR1 192212Z 16016KT 26/04 A298 RMK A01 T02570036  RH  024%=      5-min Rain = 0
KTR1 192213Z 15016KT 26/04 A298 RMK A01 T02570036  RH  024%=      5-min Rain = 0
KTR1 192214Z 16017KT 26/04 A298 RMK A01 T02570035  RH  024%=      5-min Rain = 0
KTR1 192215Z 16015KT 26/03 A298 RMK A01 T02570034  RH  024%=      5-min Rain = 0
KTR1 192216Z 16016KT 26/04 A298 RMK A01 T02560035  RH  024%=      5-min Rain = 0
KTR1 192217Z 15013KT 26/04 A2981 RMK A01 T02560035  RH  024%=      5-min Rain = 0
KTR1 192218Z 15015KT 26/04 A2981 RMK A01 T02560035  RH  024%=      5-min Rain = 0
KTR1 192219Z 15015G20KT 26/04 A298 RMK A01 T02560035  RH  024%=      5-min Rain = 0
KTR1 192220Z 15018KT 26/04 A298 RMK A01 T02560036  RH  024%=      5-min Rain = 0
KTR1 192221Z 15018KT 26/04 A298 RMK A01 T02560035  RH  024%=      5-min Rain = 0
KTR1 192222Z 15017KT 26/04 A298 RMK A01 T02560035  RH  024%=      5-min Rain = 0
KTR1 192223Z 16015KT 26/04 A2981 RMK A01 T02560036  RH  024%=      5-min Rain = 0
KTR1 192224Z 16013KT 26/04 A2981 RMK A01 T02560037  RH  024%=      5-min Rain = 0
KTR1 192225Z 16014KT 26/04 A2981 RMK A01 T02560038  RH  024%=      5-min Rain = 0
KTR1 192226Z 15016G21KT 26/04 A298 RMK A01 T02550037  RH  024%=      5-min Rain = 0
KTR1 192227Z 16018KT 26/04 A298 RMK A01 T02550036  RH  024%=      5-min Rain = 0
KTR1 192228Z 16015KT 26/04 A298 RMK A01 T02550035  RH  024%=      5-min Rain = 0
KTR1 192229Z 16015KT 26/04 A298 RMK A01 T02550037  RH  024%=      5-min Rain = 0
KTR1 192230Z 15019KT 26/04 A298 RMK A01 T02550035  RH  024%=      5-min Rain = 0
KTR1 192231Z 16017KT 26/04 A298 RMK A01 T02550035  RH  024%=      5-min Rain = 0
KTR1 192232Z 16015KT 26/04 A298 RMK A01 T02550036  RH  024%=      5-min Rain = 0
KTR1 192233Z 16015KT 25/04 A298 RMK A01 T02540037  RH  024%=      5-min Rain = 0
KTR1 192234Z 16014KT 25/04 A298 RMK A01 T02530037  RH  025%=      5-min Rain = 0
KTR1 192235Z 16016KT 25/04 A298 RMK A01 T02530036  RH  025%=      5-min Rain = 0
KTR1 192236Z 16017KT 25/04 A298 RMK A01 T02530035  RH  024%=      5-min Rain = 0
KTR1 192237Z 16015KT 25/04 A298 RMK A01 T02520035  RH  024%=      5-min Rain = 0
KTR1 192238Z 16013KT 25/04 A298 RMK A01 T02510036  RH  025%=      5-min Rain = 0
KTR1 192239Z 16017KT 25/04 A298 RMK A01 T02510035  RH  025%=      5-min Rain = 0
KTR1 192240Z 16017KT 25/03 A298 RMK A01 T02500034  RH  025%=      5-min Rain = 0
KTR1 192241Z 16018KT 25/03 A298 RMK A01 T02500033  RH  024%=      5-min Rain = 0
KTR1 192242Z 16017KT 25/03 A298 RMK A01 T02500033  RH  024%=      5-min Rain = 0
KTR1 192243Z 16018KT 25/03 A298 RMK A01 T02500033  RH  024%=      5-min Rain = 0
KTR1 192244Z 16017KT 25/03 A298 RMK A01 T02500032  RH  024%=      5-min Rain = 0
KTR1 192245Z 16015KT 25/03 A298 RMK A01 T02500033  RH  024%=      5-min Rain = 0
KTR1 192246Z 16016KT 25/03 A298 RMK A01 T02490033  RH  025%=      5-min Rain = 0
KTR1 192247Z 16016KT 25/03 A298 RMK A01 T02480031  RH  024%=      5-min Rain = 0
KTR1 192248Z 16014KT 25/03 A298 RMK A01 T02470031  RH  025%=      5-min Rain = 0
KTR1 192249Z 16015KT 25/03 A298 RMK A01 T02460032  RH  025%=      5-min Rain = 0
KTR1 192250Z 16016KT 25/03 A298 RMK A01 T02450030  RH  025%=      5-min Rain = 0
KTR1 192251Z 16014KT 24/03 A298 RMK A01 T02440031  RH  025%=      5-min Rain = 0
KTR1 192252Z 16014KT 24/03 A298 RMK A01 T02430031  RH  025%=      5-min Rain = 0
KTR1 192253Z 16015KT 24/03 A298 RMK A01 T02420029  RH  025%=      5-min Rain = 0
KTR1 192254Z 16015KT 24/03 A298 RMK A01 T02420029  RH  025%=      5-min Rain = 0
KTR1 192255Z 16014KT 24/03 A298 RMK A01 T02410030  RH  025%=      5-min Rain = 0
KTR1 192256Z 16013KT 24/03 A298 RMK A01 T02400030  RH  025%=      5-min Rain = 0
KTR1 192257Z 15012KT 24/03 A298 RMK A01 T02390030  RH  026%=      5-min Rain = 0
KTR1 192258Z 16013KT 24/03 A298 RMK A01 T02380030  RH  026%=      5-min Rain = 0
KTR1 192259Z 15014KT 24/03 A298 RMK A01 T02390030  RH  026%=      5-min Rain = 0
KTR1 192300Z 16012KT 24/03 A298 RMK A01 T02390031  RH  026%=      5-min Rain = 0
KTR1 192301Z 16013KT 24/03 A298 RMK A01 T02390032  RH  026%=      5-min Rain = 0
KTR1 192302Z 16012KT 24/03 A298 RMK A01 T02380032  RH  026%=      5-min Rain = 0
KTR1 192303Z 16012KT 24/03 A298 RMK A01 T02380032  RH  026%=      5-min Rain = 0
KTR1 192304Z 16011KT 24/03 A298 RMK A01 T02370032  RH  026%=      5-min Rain = 0
KTR1 192305Z 16012KT 24/03 A298 RMK A01 T02360032  RH  026%=      5-min Rain = 0
KTR1 192306Z 16011KT 24/03 A298 RMK A01 T02350032  RH  027%=      5-min Rain = 0
KTR1 192307Z 16011KT 23/03 A298 RMK A01 T02340033  RH  027%=      5-min Rain = 0
KTR1 192308Z 16011KT 23/03 A298 RMK A01 T02330033  RH  027%=      5-min Rain = 0
KTR1 192309Z 16011KT 23/03 A298 RMK A01 T02320033  RH  027%=      5-min Rain = 0
KTR1 192310Z 16011KT 23/03 A298 RMK A01 T02310033  RH  027%=      5-min Rain = 0
KTR1 192311Z 16011KT 23/03 A298 RMK A01 T02300033  RH  028%=      5-min Rain = 0
KTR1 192312Z 16012KT 23/03 A298 RMK A01 T02290033  RH  028%=      5-min Rain = 0
KTR1 192313Z 16011KT 23/03 A298 RMK A01 T02290032  RH  028%=      5-min Rain = 0
KTR1 192314Z 16011KT 23/03 A298 RMK A01 T02280033  RH  028%=      5-min Rain = 0
KTR1 192315Z 16011KT 23/03 A298 RMK A01 T02260032  RH  028%=      5-min Rain = 0
KTR1 192316Z 16011KT 23/03 A298 RMK A01 T02260033  RH  028%=      5-min Rain = 0
KTR1 192317Z 15010KT 23/03 A298 RMK A01 T02250033  RH  028%=      5-min Rain = 0
KTR1 192318Z 16010KT 22/03 A298 RMK A01 T02240033  RH  028%=      5-min Rain = 0
KTR1 192319Z 16011KT 22/03 A298 RMK A01 T02230033  RH  029%=      5-min Rain = 0
KTR1 192320Z 16011KT 22/03 A298 RMK A01 T02230032  RH  029%=      5-min Rain = 0
KTR1 192321Z 16012KT 22/03 A298 RMK A01 T02220032  RH  029%=      5-min Rain = 0
KTR1 192322Z 16010KT 22/03 A298 RMK A01 T02220032  RH  029%=      5-min Rain = 0
KTR1 192323Z 16010KT 22/03 A298 RMK A01 T02220032  RH  029%=      5-min Rain = 0
KTR1 192324Z 16011KT 22/03 A298 RMK A01 T02210032  RH  029%=      5-min Rain = 0
KTR1 192325Z 16010KT 22/03 A298 RMK A01 T02210032  RH  029%=      5-min Rain = 0
KTR1 192326Z 16010KT 22/03 A298 RMK A01 T02200032  RH  029%=      5-min Rain = 0
KTR1 192327Z 16010KT 22/03 A298 RMK A01 T02180032  RH  029%=      5-min Rain = 0
KTR1 192328Z 16010KT 22/03 A2981 RMK A01 T02170032  RH  030%=      5-min Rain = 0
KTR1 192329Z 16010KT 22/03 A2981 RMK A01 T02160031  RH  030%=      5-min Rain = 0
KTR1 192330Z 16010KT 22/03 A2981 RMK A01 T02150032  RH  030%=      5-min Rain = 0
KTR1 192331Z 16010KT 21/03 A2981 RMK A01 T02140031  RH  030%=      5-min Rain = 0
KTR1 192332Z 16011KT 21/03 A2981 RMK A01 T02140031  RH  030%=      5-min Rain = 0
KTR1 192333Z 16010KT 21/03 A2981 RMK A01 T02130031  RH  030%=      5-min Rain = 0
KTR1 192334Z 16011KT 21/03 A2981 RMK A01 T02120031  RH  030%=      5-min Rain = 0
KTR1 192335Z 16011KT 21/03 A2981 RMK A01 T02130031  RH  030%=      5-min Rain = 0
KTR1 192336Z 16010KT 21/03 A2981 RMK A01 T02120031  RH  030%=      5-min Rain = 0
KTR1 192337Z 16011KT 21/03 A2981 RMK A01 T02130031  RH  030%=      5-min Rain = 0
KTR1 192338Z 16011KT 21/03 A2981 RMK A01 T02120031  RH  030%=      5-min Rain = 0
KTR1 192339Z 16011KT 21/03 A2981 RMK A01 T02120031  RH  030%=      5-min Rain = 0
KTR1 192340Z 16011KT 21/03 A2981 RMK A01 T02110030  RH  030%=      5-min Rain = 0
KTR1 192341Z 16010KT 21/03 A2981 RMK A01 T02110030  RH  030%=      5-min Rain = 0
KTR1 192342Z 17010KT 21/03 A2981 RMK A01 T02100031  RH  031%=      5-min Rain = 0
KTR1 192343Z 16010KT 21/03 A2981 RMK A01 T02100031  RH  031%=      5-min Rain = 0
KTR1 192344Z 16010KT 21/03 A2981 RMK A01 T02090031  RH  031%=      5-min Rain = 0
KTR1 192345Z 16010KT 21/03 A2981 RMK A01 T02090031  RH  031%=      5-min Rain = 0
KTR1 192346Z 16010KT 21/03 A2981 RMK A01 T02080031  RH  031%=      5-min Rain = 0
KTR1 192347Z 16010KT 21/03 A2981 RMK A01 T02070031  RH  031%=      5-min Rain = 0
KTR1 192348Z 16010KT 21/03 A2981 RMK A01 T02060031  RH  031%=      5-min Rain = 0
KTR1 192349Z 16010KT 21/03 A2981 RMK A01 T02060031  RH  032%=      5-min Rain = 0
KTR1 192350Z 17010KT 21/03 A2981 RMK A01 T02050032  RH  032%=      5-min Rain = 0
KTR1 192351Z 17010KT 20/03 A2981 RMK A01 T02040031  RH  032%=      5-min Rain = 0
KTR1 192352Z 16009KT 20/03 A2981 RMK A01 T02040031  RH  032%=      5-min Rain = 0
KTR1 192353Z 16010KT 20/03 A2981 RMK A01 T02030031  RH  032%=      5-min Rain = 0
KTR1 192354Z 16009KT 20/03 A2981 RMK A01 T02020031  RH  032%=      5-min Rain = 0
KTR1 192355Z 16010KT 20/03 A298 RMK A01 T02010031  RH  032%=      5-min Rain = 0
KTR1 192356Z 16009KT 20/03 A298 RMK A01 T02010031  RH  033%=      5-min Rain = 0
KTR1 192357Z 16009KT 20/03 A298 RMK A01 T02000031  RH  033%=      5-min Rain = 0
KTR1 192358Z 16009KT 20/03 A298 RMK A01 T01990031  RH  033%=      5-min Rain = 0
KTR1 192359Z 16009KT 20/03 A298 RMK A01 T01990031  RH  033%=      5-min Rain = 0
KTR1 200000Z 16010KT 20/03 A298 RMK A01 T01980031  RH  033%=      5-min Rain = 0
KTR1 200001Z 16009KT 20/03 A298 RMK A01 T01980031  RH  033%=      5-min Rain = 0
KTR1 200002Z 16009KT 20/03 A298 RMK A01 T01970031  RH  033%=      5-min Rain = 0
KTR1 200003Z 16009KT 20/03 A298 RMK A01 T01970031  RH  033%=      5-min Rain = 0
KTR1 200004Z 16009KT 20/03 A298 RMK A01 T01960032  RH  034%=      5-min Rain = 0
KTR1 200005Z 16009KT 20/03 A298 RMK A01 T01960032  RH  034%=      5-min Rain = 0
KTR1 200006Z 16009KT 20/03 A298 RMK A01 T01950032  RH  034%=      5-min Rain = 0
KTR1 200007Z 16009KT 19/03 A298 RMK A01 T01940031  RH  034%=      5-min Rain = 0
KTR1 200008Z 16009KT 19/03 A298 RMK A01 T01940031  RH  034%=      5-min Rain = 0
KTR1 200009Z 16009KT 19/03 A298 RMK A01 T01930031  RH  034%=      5-min Rain = 0
KTR1 200010Z 16009KT 19/03 A298 RMK A01 T01920031  RH  034%=      5-min Rain = 0
KTR1 200011Z 16009KT 19/03 A298 RMK A01 T01920030  RH  034%=      5-min Rain = 0
KTR1 200012Z 16009KT 19/03 A298 RMK A01 T01910030  RH  034%=      5-min Rain = 0
KTR1 200013Z 16009KT 19/03 A298 RMK A01 T01900031  RH  035%=      5-min Rain = 0
KTR1 200014Z 16010KT 19/03 A298 RMK A01 T01900031  RH  035%=      5-min Rain = 0
KTR1 200015Z 16009KT 19/03 A298 RMK A01 T01900031  RH  035%=      5-min Rain = 0
KTR1 200016Z 16010KT 19/03 A298 RMK A01 T01890031  RH  035%=      5-min Rain = 0
KTR1 200017Z 16009KT 19/03 A298 RMK A01 T01890031  RH  035%=      5-min Rain = 0
KTR1 200018Z 16010KT 19/03 A298 RMK A01 T01890031  RH  035%=      5-min Rain = 0
KTR1 200019Z 16010KT 19/03 A298 RMK A01 T01890031  RH  035%=      5-min Rain = 0
KTR1 200020Z 16010KT 19/03 A298 RMK A01 T01890030  RH  035%=      5-min Rain = 0
KTR1 200021Z 16010KT 19/03 A298 RMK A01 T01890030  RH  035%=      5-min Rain = 0
KTR1 200022Z 16010KT 19/03 A298 RMK A01 T01890030  RH  035%=      5-min Rain = 0
KTR1 200023Z 16010KT 19/03 A298 RMK A01 T01890030  RH  035%=      5-min Rain = 0
KTR1 200024Z 16010KT 19/03 A298 RMK A01 T01890030  RH  035%=      5-min Rain = 0
KTR1 200025Z 16010KT 19/03 A298 RMK A01 T01880030  RH  035%=      5-min Rain = 0
KTR1 200026Z 16009KT 19/03 A298 RMK A01 T01880031  RH  035%=      5-min Rain = 0
KTR1 200027Z 16009KT 19/03 A298 RMK A01 T01870031  RH  035%=      5-min Rain = 0
KTR1 200028Z 16009KT 19/03 A298 RMK A01 T01870031  RH  035%=      5-min Rain = 0
KTR1 200029Z 16009KT 19/03 A298 RMK A01 T01870031  RH  035%=      5-min Rain = 0
KTR1 200030Z 16009KT 19/03 A298 RMK A01 T01860031  RH  036%=      5-min Rain = 0
KTR1 200031Z 16009KT 19/03 A298 RMK A01 T01850031  RH  036%=      5-min Rain = 0
KTR1 200032Z 16009KT 19/03 A2981 RMK A01 T01850031  RH  036%=      5-min Rain = 0
KTR1 200033Z 16009KT 18/03 A2981 RMK A01 T01840030  RH  036%=      5-min Rain = 0
KTR1 200034Z 16009KT 18/03 A2981 RMK A01 T01840031  RH  036%=      5-min Rain = 0
KTR1 200035Z 16009KT 18/03 A2981 RMK A01 T01830030  RH  036%=      5-min Rain = 0
KTR1 200036Z 16009KT 18/03 A2981 RMK A01 T01830030  RH  036%=      5-min Rain = 0
KTR1 200037Z 16009KT 18/03 A2981 RMK A01 T01820030  RH  036%=      5-min Rain = 0
KTR1 200038Z 16009KT 18/03 A2981 RMK A01 T01820030  RH  036%=      5-min Rain = 0
KTR1 200039Z 16010KT 18/03 A2981 RMK A01 T01810030  RH  037%=      5-min Rain = 0
KTR1 200040Z 16010KT 18/03 A2981 RMK A01 T01810030  RH  037%=      5-min Rain = 0
KTR1 200041Z 16010KT 18/03 A2981 RMK A01 T01800030  RH  037%=      5-min Rain = 0
KTR1 200042Z 16010KT 18/03 A2981 RMK A01 T01800031  RH  037%=      5-min Rain = 0
KTR1 200043Z 16010KT 18/03 A2981 RMK A01 T01800031  RH  037%=      5-min Rain = 0
KTR1 200044Z 16009KT 18/03 A2981 RMK A01 T01790031  RH  037%=      5-min Rain = 0
KTR1 200045Z 16009KT 18/03 A2981 RMK A01 T01790031  RH  037%=      5-min Rain = 0
KTR1 200046Z 16010KT 18/03 A2981 RMK A01 T01780031  RH  037%=      5-min Rain = 0
KTR1 200047Z 16010KT 18/03 A2981 RMK A01 T01780031  RH  038%=      5-min Rain = 0
KTR1 200048Z 16010KT 18/03 A2981 RMK A01 T01780031  RH  038%=      5-min Rain = 0
KTR1 200049Z 16010KT 18/03 A2981 RMK A01 T01770031  RH  038%=      5-min Rain = 0
KTR1 200050Z 16010KT 18/03 A2981 RMK A01 T01770031  RH  038%=      5-min Rain = 0
KTR1 200051Z 16010KT 18/03 A2981 RMK A01 T01770031  RH  038%=      5-min Rain = 0
KTR1 200052Z 15010KT 18/03 A2981 RMK A01 T01760032  RH  038%=      5-min Rain = 0
KTR1 200053Z 15010KT 18/03 A2981 RMK A01 T01760032  RH  038%=      5-min Rain = 0
KTR1 200054Z 15010KT 18/03 A2981 RMK A01 T01760032  RH  038%=      5-min Rain = 0
KTR1 200055Z 15010KT 18/03 A2981 RMK A01 T01780032  RH  038%=      5-min Rain = 0
KTR1 200056Z 15009KT 18/03 A2981 RMK A01 T01810033  RH  037%=      5-min Rain = 0
KTR1 200057Z 15010KT 18/03 A2981 RMK A01 T01810033  RH  037%=      5-min Rain = 0
KTR1 200058Z 15011KT 18/03 A2981 RMK A01 T01820032  RH  037%=      5-min Rain = 0
KTR1 200059Z 15010KT 18/03 A2981 RMK A01 T01820031  RH  037%=      5-min Rain = 0
KTR1 200100Z 15010KT 18/03 A2981 RMK A01 T01830032  RH  036%=      5-min Rain = 0
KTR1 200101Z 15010KT 18/03 A2981 RMK A01 T01840032  RH  036%=      5-min Rain = 0
KTR1 200102Z 15010KT 18/03 A2981 RMK A01 T01830031  RH  036%=      5-min Rain = 0
KTR1 200103Z 15010KT 18/03 A2981 RMK A01 T01820031  RH  037%=      5-min Rain = 0
KTR1 200104Z 15011KT 18/03 A2981 RMK A01 T01820031  RH  037%=      5-min Rain = 0
KTR1 200105Z 15010KT 18/03 A2981 RMK A01 T01820031  RH  037%=      5-min Rain = 0
KTR1 200106Z 15010KT 18/03 A2981 RMK A01 T01820031  RH  037%=      5-min Rain = 0
KTR1 200107Z 15010KT 18/03 A2981 RMK A01 T01820031  RH  037%=      5-min Rain = 0
KTR1 200108Z 15010KT 18/03 A2981 RMK A01 T01820031  RH  037%=      5-min Rain = 0
KTR1 200109Z 15010KT 18/03 A2981 RMK A01 T01820031  RH  037%=      5-min Rain = 0
KTR1 200110Z 15010KT 18/03 A2981 RMK A01 T01810031  RH  037%=      5-min Rain = 0
KTR1 200111Z 15010KT 18/03 A2981 RMK A01 T01810031  RH  037%=      5-min Rain = 0
KTR1 200112Z 15010KT 18/03 A2981 RMK A01 T01810031  RH  037%=      5-min Rain = 0
KTR1 200113Z 15009KT 18/03 A2981 RMK A01 T01810031  RH  037%=      5-min Rain = 0
KTR1 200114Z 15010KT 18/03 A2981 RMK A01 T01810031  RH  037%=      5-min Rain = 0
KTR1 200115Z 15010KT 18/03 A2981 RMK A01 T01810031  RH  037%=      5-min Rain = 0
KTR1 200116Z 15009KT 18/03 A2981 RMK A01 T01800031  RH  037%=      5-min Rain = 0
KTR1 200117Z 15009KT 18/03 A2981 RMK A01 T01790031  RH  037%=      5-min Rain = 0
KTR1 200118Z 15009KT 18/03 A2981 RMK A01 T01780031  RH  037%=      5-min Rain = 0
KTR1 200119Z 15009KT 18/03 A2981 RMK A01 T01770031  RH  038%=      5-min Rain = 0
KTR1 200120Z 15009KT 18/03 A2981 RMK A01 T01770031  RH  038%=      5-min Rain = 0
KTR1 200121Z 15009KT 18/03 A2981 RMK A01 T01760031  RH  038%=      5-min Rain = 0
KTR1 200122Z 15009KT 18/03 A2981 RMK A01 T01750031  RH  038%=      5-min Rain = 0
KTR1 200123Z 15009KT 17/03 A2981 RMK A01 T01740031  RH  039%=      5-min Rain = 0
KTR1 200124Z 15009KT 17/03 A2981 RMK A01 T01740032  RH  039%=      5-min Rain = 0
KTR1 200125Z 15009KT 17/03 A2981 RMK A01 T01730032  RH  039%=      5-min Rain = 0
KTR1 200126Z 15009KT 17/03 A2981 RMK A01 T01720032  RH  039%=      5-min Rain = 0
KTR1 200127Z 15009KT 17/03 A298 RMK A01 T01720032  RH  039%=      5-min Rain = 0
KTR1 200128Z 15009KT 17/03 A298 RMK A01 T01710032  RH  039%=      5-min Rain = 0
KTR1 200129Z 15009KT 17/03 A298 RMK A01 T01710032  RH  039%=      5-min Rain = 0
KTR1 200130Z 15009KT 17/03 A298 RMK A01 T01710032  RH  039%=      5-min Rain = 0
KTR1 200131Z 15009KT 17/03 A298 RMK A01 T01710032  RH  039%=      5-min Rain = 0
KTR1 200132Z 15009KT 17/03 A2981 RMK A01 T01700032  RH  040%=      5-min Rain = 0
KTR1 200133Z 15009KT 17/03 A2981 RMK A01 T01700032  RH  040%=      5-min Rain = 0
KTR1 200134Z 15009KT 17/03 A2981 RMK A01 T01690032  RH  040%=      5-min Rain = 0
KTR1 200135Z 15009KT 17/03 A2981 RMK A01 T01690032  RH  040%=      5-min Rain = 0
KTR1 200136Z 15009KT 17/03 A298 RMK A01 T01690032  RH  040%=      5-min Rain = 0
KTR1 200137Z 15009KT 17/03 A298 RMK A01 T01690032  RH  040%=      5-min Rain = 0
KTR1 200138Z 15009KT 17/03 A298 RMK A01 T01690032  RH  040%=      5-min Rain = 0
KTR1 200139Z 15009KT 17/03 A298 RMK A01 T01690033  RH  040%=      5-min Rain = 0
KTR1 200140Z 15010KT 17/03 A298 RMK A01 T01690033  RH  040%=      5-min Rain = 0
KTR1 200141Z 15010KT 17/03 A298 RMK A01 T01690033  RH  040%=      5-min Rain = 0
KTR1 200142Z 15010KT 17/03 A298 RMK A01 T01680033  RH  040%=      5-min Rain = 0
KTR1 200143Z 15009KT 17/03 A298 RMK A01 T01680033  RH  040%=      5-min Rain = 0
KTR1 200144Z 15010KT 17/03 A298 RMK A01 T01680033  RH  041%=      5-min Rain = 0
KTR1 200145Z 15010KT 17/03 A2981 RMK A01 T01680033  RH  041%=      5-min Rain = 0
KTR1 200146Z 15010KT 17/03 A2981 RMK A01 T01690034  RH  040%=      5-min Rain = 0
KTR1 200147Z 15010KT 17/03 A2981 RMK A01 T01690034  RH  040%=      5-min Rain = 0
KTR1 200148Z 15010KT 17/03 A2981 RMK A01 T01690034  RH  040%=      5-min Rain = 0
KTR1 200149Z 15010KT 17/03 A2981 RMK A01 T01700034  RH  040%=      5-min Rain = 0
KTR1 200150Z 15010KT 17/03 A2981 RMK A01 T01700034  RH  040%=      5-min Rain = 0
KTR1 200151Z 15011KT 17/03 A2981 RMK A01 T01700034  RH  040%=      5-min Rain = 0
KTR1 200152Z 15010KT 17/04 A2981 RMK A01 T01710035  RH  040%=      5-min Rain = 0
KTR1 200153Z 15010KT 17/04 A2981 RMK A01 T01710035  RH  040%=      5-min Rain = 0
KTR1 200154Z 15011KT 17/04 A2981 RMK A01 T01710035  RH  040%=      5-min Rain = 0
KTR1 200155Z 15011KT 17/04 A2981 RMK A01 T01710036  RH  040%=      5-min Rain = 0
KTR1 200156Z 15011KT 17/04 A2981 RMK A01 T01710036  RH  040%=      5-min Rain = 0
KTR1 200157Z 15011KT 17/04 A2981 RMK A01 T01710036  RH  041%=      5-min Rain = 0
KTR1 200158Z 15010KT 17/04 A2981 RMK A01 T01720037  RH  041%=      5-min Rain = 0
KTR1 200159Z 15010KT 17/04 A298 RMK A01 T01720037  RH  041%=      5-min Rain = 0
KTR1 200200Z 15010KT 17/04 A298 RMK A01 T01720037  RH  041%=      5-min Rain = 0
KTR1 200201Z 15010KT 17/04 A298 RMK A01 T01720038  RH  041%=      5-min Rain = 0
KTR1 200202Z 15011KT 17/04 A298 RMK A01 T01710038  RH  041%=      5-min Rain = 0
KTR1 200203Z 15011KT 17/04 A298 RMK A01 T01710038  RH  041%=      5-min Rain = 0
KTR1 200204Z 15011KT 17/04 A298 RMK A01 T01720038  RH  041%=      5-min Rain = 0
KTR1 200205Z 15010KT 17/04 A298 RMK A01 T01720039  RH  041%=      5-min Rain = 0
KTR1 200206Z 15010KT 17/04 A298 RMK A01 T01720039  RH  041%=      5-min Rain = 0
KTR1 200207Z 15011KT 17/04 A298 RMK A01 T01710039  RH  041%=      5-min Rain = 0
KTR1 200208Z 15010KT 17/04 A298 RMK A01 T01720040  RH  042%=      5-min Rain = 0
KTR1 200209Z 15010KT 17/04 A298 RMK A01 T01710040  RH  042%=      5-min Rain = 0
KTR1 200210Z 15010KT 17/04 A298 RMK A01 T01700040  RH  042%=      5-min Rain = 0
KTR1 200211Z 15010KT 17/04 A298 RMK A01 T01700040  RH  042%=      5-min Rain = 0
KTR1 200212Z 15010KT 17/04 A298 RMK A01 T01690041  RH  042%=      5-min Rain = 0
KTR1 200213Z 15010KT 17/04 A298 RMK A01 T01680041  RH  043%=      5-min Rain = 0
KTR1 200214Z 15011KT 17/04 A298 RMK A01 T01680041  RH  043%=      5-min Rain = 0
KTR1 200215Z 15010KT 17/04 A298 RMK A01 T01680041  RH  043%=      5-min Rain = 0
KTR1 200216Z 15010KT 17/04 A298 RMK A01 T01680042  RH  043%=      5-min Rain = 0
KTR1 200217Z 15010KT 17/04 A298 RMK A01 T01680042  RH  043%=      5-min Rain = 0
KTR1 200218Z 15010KT 17/04 A298 RMK A01 T01670042  RH  043%=      5-min Rain = 0
KTR1 200219Z 15010KT 17/04 A298 RMK A01 T01670042  RH  043%=      5-min Rain = 0
KTR1 200220Z 15010KT 17/04 A298 RMK A01 T01670042  RH  044%=      5-min Rain = 0
KTR1 200221Z 15010KT 17/04 A298 RMK A01 T01660042  RH  044%=      5-min Rain = 0
KTR1 200222Z 15011KT 17/04 A298 RMK A01 T01660043  RH  044%=      5-min Rain = 0
KTR1 200223Z 15011KT 17/04 A298 RMK A01 T01660043  RH  044%=      5-min Rain = 0
KTR1 200224Z 15010KT 17/04 A298 RMK A01 T01660043  RH  044%=      5-min Rain = 0
KTR1 200225Z 15011KT 17/04 A298 RMK A01 T01650043  RH  044%=      5-min Rain = 0
KTR1 200226Z 15011KT 17/04 A298 RMK A01 T01650043  RH  044%=      5-min Rain = 0
KTR1 200227Z 15011KT 17/04 A298 RMK A01 T01650043  RH  044%=      5-min Rain = 0
KTR1 200228Z 15011KT 17/04 A298 RMK A01 T01660044  RH  044%=      5-min Rain = 0
KTR1 200229Z 15011KT 17/04 A298 RMK A01 T01660044  RH  044%=      5-min Rain = 0
KTR1 200230Z 15011KT 17/04 A2981 RMK A01 T01660044  RH  044%=      5-min Rain = 0
KTR1 200231Z 15011KT 17/05 A298 RMK A01 T01660045  RH  044%=      5-min Rain = 0
KTR1 200232Z 15010KT 17/05 A298 RMK A01 T01670045  RH  045%=      5-min Rain = 0
KTR1 200233Z 15011KT 17/05 A298 RMK A01 T01670045  RH  044%=      5-min Rain = 0
KTR1 200234Z 15011KT 17/05 A298 RMK A01 T01680046  RH  044%=      5-min Rain = 0
KTR1 200235Z 15011KT 17/05 A298 RMK A01 T01680046  RH  044%=      5-min Rain = 0
KTR1 200236Z 15011KT 17/05 A298 RMK A01 T01680046  RH  044%=      5-min Rain = 0
KTR1 200237Z 15012KT 17/05 A298 RMK A01 T01680046  RH  044%=      5-min Rain = 0
KTR1 200238Z 15011KT 17/05 A298 RMK A01 T01680047  RH  044%=      5-min Rain = 0
KTR1 200239Z 15011KT 17/05 A298 RMK A01 T01680047  RH  045%=      5-min Rain = 0
KTR1 200240Z 15011KT 17/05 A298 RMK A01 T01680047  RH  045%=      5-min Rain = 0
KTR1 200241Z 15011KT 17/05 A298 RMK A01 T01680047  RH  045%=      5-min Rain = 0
KTR1 200242Z 16011KT 17/05 A298 RMK A01 T01680048  RH  045%=      5-min Rain = 0
KTR1 200243Z 16011KT 17/05 A298 RMK A01 T01680048  RH  045%=      5-min Rain = 0
KTR1 200244Z 16011KT 17/05 A2981 RMK A01 T01680048  RH  045%=      5-min Rain = 0
KTR1 200245Z 16012KT 17/05 A2981 RMK A01 T01680049  RH  045%=      5-min Rain = 0
KTR1 200246Z 16012KT 17/05 A298 RMK A01 T01680049  RH  045%=      5-min Rain = 0
KTR1 200247Z 16012KT 17/05 A298 RMK A01 T01680049  RH  045%=      5-min Rain = 0
KTR1 200248Z 15012KT 17/05 A298 RMK A01 T01690049  RH  045%=      5-min Rain = 0
KTR1 200249Z 16012KT 17/05 A298 RMK A01 T01690050  RH  045%=      5-min Rain = 0
KTR1 200250Z 16011KT 17/05 A298 RMK A01 T01690050  RH  045%=      5-min Rain = 0
KTR1 200251Z 16012KT 17/05 A298 RMK A01 T01680050  RH  046%=      5-min Rain = 0
KTR1 200252Z 15011KT 17/05 A298 RMK A01 T01680050  RH  046%=      5-min Rain = 0
KTR1 200253Z 16012KT 17/05 A298 RMK A01 T01680050  RH  046%=      5-min Rain = 0
KTR1 200254Z 16012KT 17/05 A298 RMK A01 T01680050  RH  046%=      5-min Rain = 0
KTR1 200255Z 15012KT 17/05 A298 RMK A01 T01680051  RH  046%=      5-min Rain = 0
KTR1 200256Z 15012KT 17/05 A298 RMK A01 T01680051  RH  046%=      5-min Rain = 0
KTR1 200257Z 16011KT 17/05 A298 RMK A01 T01680051  RH  046%=      5-min Rain = 0
KTR1 200258Z 16011KT 17/05 A298 RMK A01 T01680051  RH  046%=      5-min Rain = 0
KTR1 200259Z 16012KT 17/05 A298 RMK A01 T01690051  RH  046%=      5-min Rain = 0
KTR1 200300Z 16012KT 17/05 A2981 RMK A01 T01680051  RH  046%=      5-min Rain = 0
KTR1 200301Z 16012KT 17/05 A2981 RMK A01 T01680051  RH  046%=      5-min Rain = 0
KTR1 200302Z 16011KT 17/05 A2981 RMK A01 T01680051  RH  046%=      5-min Rain = 0
KTR1 200303Z 16012KT 17/05 A2981 RMK A01 T01670051  RH  046%=      5-min Rain = 0
KTR1 200304Z 16011KT 17/05 A2981 RMK A01 T01670052  RH  046%=      5-min Rain = 0
KTR1 200305Z 15011KT 17/05 A2981 RMK A01 T01670052  RH  046%=      5-min Rain = 0
KTR1 200306Z 15012KT 17/05 A2981 RMK A01 T01670052  RH  047%=      5-min Rain = 0
KTR1 200307Z 16011KT 17/05 A2981 RMK A01 T01660052  RH  047%=      5-min Rain = 0
KTR1 200308Z 16012KT 17/05 A2981 RMK A01 T01660052  RH  047%=      5-min Rain = 0
KTR1 200309Z 15011KT 17/05 A2981 RMK A01 T01670052  RH  047%=      5-min Rain = 0
KTR1 200310Z 16011KT 17/05 A2981 RMK A01 T01670052  RH  047%=      5-min Rain = 0
KTR1 200311Z 15011KT 17/05 A2981 RMK A01 T01660052  RH  047%=      5-min Rain = 0
KTR1 200312Z 16011KT 17/05 A2981 RMK A01 T01660052  RH  047%=      5-min Rain = 0
KTR1 200313Z 16011KT 17/05 A2981 RMK A01 T01660052  RH  047%=      5-min Rain = 0
KTR1 200314Z 16011KT 17/05 A2981 RMK A01 T01650052  RH  047%=      5-min Rain = 0
KTR1 200315Z 16011KT 16/05 A2981 RMK A01 T01640052  RH  048%=      5-min Rain = 0
KTR1 200316Z 16010KT 16/05 A2981 RMK A01 T01630052  RH  048%=      5-min Rain = 0
KTR1 200317Z 16011KT 16/05 A2981 RMK A01 T01620052  RH  048%=      5-min Rain = 0
KTR1 200318Z 16010KT 16/05 A2981 RMK A01 T01610052  RH  048%=      5-min Rain = 0
KTR1 200319Z 16010KT 16/05 A2981 RMK A01 T01600052  RH  049%=      5-min Rain = 0
KTR1 200320Z 16010KT 16/05 A2981 RMK A01 T01600052  RH  049%=      5-min Rain = 0
KTR1 200321Z 16009KT 16/05 A2981 RMK A01 T01600053  RH  049%=      5-min Rain = 0
KTR1 200322Z 16009KT 16/05 A2981 RMK A01 T01590053  RH  049%=      5-min Rain = 0
KTR1 200323Z 16010KT 16/05 A2981 RMK A01 T01580052  RH  049%=      5-min Rain = 0
KTR1 200324Z 16009KT 16/05 A2981 RMK A01 T01570053  RH  050%=      5-min Rain = 0
KTR1 200325Z 16010KT 16/05 A2981 RMK A01 T01570052  RH  050%=      5-min Rain = 0
KTR1 200326Z 16010KT 16/05 A2981 RMK A01 T01570053  RH  050%=      5-min Rain = 0
KTR1 200327Z 16010KT 16/05 A2981 RMK A01 T01570052  RH  050%=      5-min Rain = 0
KTR1 200328Z 15009KT 16/05 A2981 RMK A01 T01560052  RH  050%=      5-min Rain = 0
KTR1 200329Z 16009KT 16/05 A2981 RMK A01 T01560052  RH  050%=      5-min Rain = 0
KTR1 200330Z 15009KT 16/05 A2981 RMK A01 T01550052  RH  050%=      5-min Rain = 0
KTR1 200331Z 16009KT 16/05 A2981 RMK A01 T01550052  RH  050%=      5-min Rain = 0
KTR1 200332Z 16009KT 15/05 A2981 RMK A01 T01540053  RH  051%=      5-min Rain = 0
KTR1 200333Z 16009KT 15/05 A2981 RMK A01 T01540053  RH  051%=      5-min Rain = 0
KTR1 200334Z 16009KT 15/05 A2981 RMK A01 T01530052  RH  051%=      5-min Rain = 0
KTR1 200335Z 16009KT 15/05 A2981 RMK A01 T01530052  RH  051%=      5-min Rain = 0
KTR1 200336Z 16009KT 15/05 A2981 RMK A01 T01520052  RH  051%=      5-min Rain = 0
KTR1 200337Z 15009KT 15/05 A2981 RMK A01 T01520052  RH  051%=      5-min Rain = 0
KTR1 200338Z 16009KT 15/05 A2981 RMK A01 T01510052  RH  052%=      5-min Rain = 0
KTR1 200339Z 16008KT 15/05 A2981 RMK A01 T01510052  RH  052%=      5-min Rain = 0
KTR1 200340Z 16008KT 15/05 A2981 RMK A01 T01500052  RH  052%=      5-min Rain = 0
KTR1 200341Z 16009KT 15/05 A2981 RMK A01 T01490052  RH  052%=      5-min Rain = 0
KTR1 200342Z 16008KT 15/05 A2981 RMK A01 T01490052  RH  052%=      5-min Rain = 0
KTR1 200343Z 16009KT 15/05 A2981 RMK A01 T01480052  RH  052%=      5-min Rain = 0
KTR1 200344Z 16009KT 15/05 A2981 RMK A01 T01480052  RH  053%=      5-min Rain = 0
KTR1 200345Z 16008KT 15/05 A2981 RMK A01 T01470052  RH  053%=      5-min Rain = 0
KTR1 200346Z 16009KT 15/05 A2981 RMK A01 T01470053  RH  053%=      5-min Rain = 0
KTR1 200347Z 16009KT 15/05 A2981 RMK A01 T01470053  RH  053%=      5-min Rain = 0
KTR1 200348Z 17009KT 15/05 A2981 RMK A01 T01470053  RH  053%=      5-min Rain = 0
KTR1 200349Z 17009KT 15/05 A2981 RMK A01 T01470053  RH  053%=      5-min Rain = 0
KTR1 200350Z 17010KT 15/05 A2982 RMK A01 T01480053  RH  053%=      5-min Rain = 0
KTR1 200351Z 17010KT 15/05 A2982 RMK A01 T01480053  RH  053%=      5-min Rain = 0
KTR1 200352Z 17009KT 15/05 A2982 RMK A01 T01480054  RH  053%=      5-min Rain = 0
KTR1 200353Z 17010KT 15/05 A2982 RMK A01 T01480054  RH  053%=      5-min Rain = 0
KTR1 200354Z 17010KT 15/05 A2982 RMK A01 T01480054  RH  053%=      5-min Rain = 0
KTR1 200355Z 17009KT 15/05 A2982 RMK A01 T01480054  RH  053%=      5-min Rain = 0
KTR1 200356Z 17010KT 15/05 A2982 RMK A01 T01480054  RH  053%=      5-min Rain = 0
KTR1 200357Z 17010KT 15/05 A2982 RMK A01 T01480054  RH  053%=      5-min Rain = 0
KTR1 200358Z 17010KT 15/05 A2982 RMK A01 T01490054  RH  053%=      5-min Rain = 0
KTR1 200359Z 17010KT 15/05 A2982 RMK A01 T01490054  RH  053%=      5-min Rain = 0
KTR1 200400Z 17009KT 15/05 A2982 RMK A01 T01490054  RH  053%=      5-min Rain = 0
KTR1 200401Z 17010KT 15/05 A2982 RMK A01 T01480054  RH  054%=      5-min Rain = 0
KTR1 200402Z 17010KT 15/06 A2982 RMK A01 T01470055  RH  054%=      5-min Rain = 0
KTR1 200403Z 17010KT 15/06 A2982 RMK A01 T01470055  RH  054%=      5-min Rain = 0
KTR1 200404Z 17010KT 15/06 A2982 RMK A01 T01460055  RH  054%=      5-min Rain = 0
KTR1 200405Z 17010KT 15/06 A2982 RMK A01 T01460055  RH  054%=      5-min Rain = 0
KTR1 200406Z 17010KT 15/06 A2982 RMK A01 T01460055  RH  055%=      5-min Rain = 0
KTR1 200407Z 17010KT 15/06 A2982 RMK A01 T01460055  RH  055%=      5-min Rain = 0
KTR1 200408Z 17010KT 15/06 A2982 RMK A01 T01460055  RH  055%=      5-min Rain = 0
KTR1 200409Z 17010KT 15/06 A2982 RMK A01 T01460055  RH  055%=      5-min Rain = 0
KTR1 200410Z 17009KT 15/06 A2982 RMK A01 T01450055  RH  055%=      5-min Rain = 0
KTR1 200411Z 16009KT 14/06 A2982 RMK A01 T01440055  RH  055%=      5-min Rain = 0
KTR1 200412Z 17009KT 14/06 A2982 RMK A01 T01440055  RH  055%=      5-min Rain = 0
KTR1 200413Z 17009KT 14/06 A2982 RMK A01 T01440055  RH  055%=      5-min Rain = 0
KTR1 200414Z 16009KT 14/06 A2982 RMK A01 T01440055  RH  055%=      5-min Rain = 0
KTR1 200415Z 16009KT 14/06 A2982 RMK A01 T01440055  RH  055%=      5-min Rain = 0
KTR1 200416Z 16010KT 14/06 A2982 RMK A01 T01440056  RH  055%=      5-min Rain = 0
KTR1 200417Z 16009KT 15/06 A2982 RMK A01 T01450056  RH  055%=      5-min Rain = 0
KTR1 200418Z 16009KT 15/06 A2982 RMK A01 T01450056  RH  055%=      5-min Rain = 0
KTR1 200419Z 16010KT 15/06 A2982 RMK A01 T01450056  RH  055%=      5-min Rain = 0
KTR1 200420Z 16010KT 14/06 A2982 RMK A01 T01440056  RH  055%=      5-min Rain = 0
KTR1 200421Z 16010KT 14/06 A2982 RMK A01 T01440056  RH  056%=      5-min Rain = 0
KTR1 200422Z 16010KT 14/06 A2982 RMK A01 T01440056  RH  056%=      5-min Rain = 0
KTR1 200423Z 16010KT 15/06 A2982 RMK A01 T01450057  RH  056%=      5-min Rain = 0
KTR1 200424Z 16010KT 15/06 A2982 RMK A01 T01460057  RH  055%=      5-min Rain = 0
KTR1 200425Z 17010KT 15/06 A2982 RMK A01 T01450057  RH  055%=      5-min Rain = 0
KTR1 200426Z 17010KT 15/06 A2982 RMK A01 T01460058  RH  055%=      5-min Rain = 0
KTR1 200427Z 17010KT 15/06 A2982 RMK A01 T01460058  RH  056%=      5-min Rain = 0
KTR1 200428Z 17010KT 15/06 A2982 RMK A01 T01450058  RH  056%=      5-min Rain = 0
KTR1 200429Z 17010KT 15/06 A2982 RMK A01 T01450058  RH  056%=      5-min Rain = 0
KTR1 200430Z 16010KT 15/06 A2982 RMK A01 T01450058  RH  056%=      5-min Rain = 0
KTR1 200431Z 17009KT 15/06 A2982 RMK A01 T01450058  RH  056%=      5-min Rain = 0
KTR1 200432Z 17010KT 14/06 A2982 RMK A01 T01440058  RH  056%=      5-min Rain = 0
KTR1 200433Z 17010KT 15/06 A2982 RMK A01 T01450058  RH  056%=      5-min Rain = 0
KTR1 200434Z 17010KT 14/06 A2982 RMK A01 T01440058  RH  056%=      5-min Rain = 0
KTR1 200435Z 17009KT 14/06 A2982 RMK A01 T01440058  RH  056%=      5-min Rain = 0
KTR1 200436Z 17009KT 14/06 A2982 RMK A01 T01440059  RH  056%=      5-min Rain = 0
KTR1 200437Z 17009KT 15/06 A2982 RMK A01 T01450059  RH  056%=      5-min Rain = 0
KTR1 200438Z 17009KT 15/06 A2982 RMK A01 T01450059  RH  056%=      5-min Rain = 0
KTR1 200439Z 17009KT 15/06 A2982 RMK A01 T01450059  RH  056%=      5-min Rain = 0
KTR1 200440Z 17009KT 15/06 A2982 RMK A01 T01450059  RH  056%=      5-min Rain = 0
KTR1 200441Z 17010KT 15/06 A2982 RMK A01 T01450059  RH  056%=      5-min Rain = 0
KTR1 200442Z 17010KT 15/06 A2982 RMK A01 T01450059  RH  056%=      5-min Rain = 0
KTR1 200443Z 17010KT 15/06 A2982 RMK A01 T01460060  RH  056%=      5-min Rain = 0
KTR1 200444Z 17010KT 15/06 A2982 RMK A01 T01460060  RH  056%=      5-min Rain = 0
KTR1 200445Z 17010KT 15/06 A2982 RMK A01 T01470060  RH  056%=      5-min Rain = 0
KTR1 200446Z 17009KT 15/06 A2982 RMK A01 T01470060  RH  056%=      5-min Rain = 0
KTR1 200447Z 17010KT 15/06 A2982 RMK A01 T01470060  RH  056%=      5-min Rain = 0
KTR1 200448Z 17010KT 15/06 A2982 RMK A01 T01470060  RH  056%=      5-min Rain = 0
KTR1 200449Z 17010KT 15/06 A2982 RMK A01 T01470060  RH  056%=      5-min Rain = 0
KTR1 200450Z 17010KT 15/06 A2982 RMK A01 T01480061  RH  056%=      5-min Rain = 0
KTR1 200451Z 17010KT 15/06 A2982 RMK A01 T01480061  RH  056%=      5-min Rain = 0
KTR1 200452Z 17012KT 15/06 A2982 RMK A01 T01490061  RH  056%=      5-min Rain = 0
KTR1 200453Z 16010KT 15/06 A2982 RMK A01 T01530063  RH  055%=      5-min Rain = 0
KTR1 200454Z 16010KT 15/06 A2982 RMK A01 T01540062  RH  054%=      5-min Rain = 0
KTR1 200455Z 16010KT 15/06 A2982 RMK A01 T01530062  RH  054%=      5-min Rain = 0
KTR1 200456Z 16009KT 15/06 A2982 RMK A01 T01510061  RH  055%=      5-min Rain = 0
KTR1 200457Z 16009KT 15/06 A2982 RMK A01 T01500061  RH  055%=      5-min Rain = 0
KTR1 200458Z 16009KT 15/06 A2982 RMK A01 T01500061  RH  055%=      5-min Rain = 0
KTR1 200459Z 16009KT 15/06 A2982 RMK A01 T01490062  RH  056%=      5-min Rain = 0
KTR1 200500Z 16009KT 15/06 A2982 RMK A01 T01490061  RH  056%=      5-min Rain = 0
KTR1 200501Z 16009KT 15/06 A2982 RMK A01 T01480062  RH  056%=      5-min Rain = 0
KTR1 200502Z 16009KT 15/06 A2982 RMK A01 T01480061  RH  056%=      5-min Rain = 0
KTR1 200503Z 16009KT 15/06 A2982 RMK A01 T01480062  RH  056%=      5-min Rain = 0
KTR1 200504Z 16009KT 15/06 A2982 RMK A01 T01470061  RH  056%=      5-min Rain = 0
KTR1 200505Z 16009KT 15/06 A2982 RMK A01 T01470062  RH  057%=      5-min Rain = 0
KTR1 200506Z 17009KT 15/06 A2982 RMK A01 T01460061  RH  057%=      5-min Rain = 0
KTR1 200507Z 16009KT 15/06 A2982 RMK A01 T01460062  RH  057%=      5-min Rain = 0
KTR1 200508Z 16009KT 15/06 A2982 RMK A01 T01460062  RH  057%=      5-min Rain = 0
KTR1 200509Z 17009KT 15/06 A2982 RMK A01 T01460062  RH  057%=      5-min Rain = 0
KTR1 200510Z 17009KT 15/06 A2982 RMK A01 T01450062  RH  057%=      5-min Rain = 0
KTR1 200511Z 16009KT 15/06 A2982 RMK A01 T01450062  RH  058%=      5-min Rain = 0
KTR1 200512Z 16009KT 15/06 A2982 RMK A01 T01450063  RH  058%=      5-min Rain = 0
KTR1 200513Z 16009KT 15/06 A2982 RMK A01 T01450063  RH  058%=      5-min Rain = 0
KTR1 200514Z 16009KT 15/06 A2982 RMK A01 T01450063  RH  058%=      5-min Rain = 0
KTR1 200515Z 16010KT 14/06 A2982 RMK A01 T01440063  RH  058%=      5-min Rain = 0
KTR1 200516Z 16011KT 14/06 A2982 RMK A01 T01440063  RH  058%=      5-min Rain = 0
KTR1 200517Z 16011KT 14/06 A2982 RMK A01 T01440063  RH  058%=      5-min Rain = 0
KTR1 200518Z 16010KT 14/06 A2982 RMK A01 T01440063  RH  058%=      5-min Rain = 0
KTR1 200519Z 16010KT 14/06 A2982 RMK A01 T01440063  RH  058%=      5-min Rain = 0
KTR1 200520Z 16011KT 14/06 A2982 RMK A01 T01440063  RH  058%=      5-min Rain = 0
KTR1 200521Z 16010KT 14/06 A2982 RMK A01 T01440063  RH  058%=      5-min Rain = 0
KTR1 200522Z 16011KT 14/06 A2982 RMK A01 T01440063  RH  058%=      5-min Rain = 0
KTR1 200523Z 16011KT 14/06 A2982 RMK A01 T01440063  RH  058%=      5-min Rain = 0
KTR1 200524Z 16012KT 14/06 A2982 RMK A01 T01440063  RH  058%=      5-min Rain = 0
KTR1 200525Z 16011KT 14/06 A2982 RMK A01 T01440063  RH  058%=      5-min Rain = 0
KTR1 200526Z 16011KT 14/06 A2982 RMK A01 T01440063  RH  058%=      5-min Rain = 0
KTR1 200527Z 16011KT 14/06 A2982 RMK A01 T01440063  RH  059%=      5-min Rain = 0
KTR1 200528Z 16011KT 14/06 A2982 RMK A01 T01430064  RH  059%=      5-min Rain = 0
KTR1 200529Z 16011KT 14/06 A2982 RMK A01 T01440064  RH  059%=      5-min Rain = 0
KTR1 200530Z 15011KT 14/06 A2982 RMK A01 T01440064  RH  059%=      5-min Rain = 0
KTR1 200531Z 16011KT 14/06 A2982 RMK A01 T01440064  RH  059%=      5-min Rain = 0
KTR1 200532Z 15011KT 14/06 A2982 RMK A01 T01440064  RH  059%=      5-min Rain = 0
KTR1 200533Z 16011KT 14/07 A2982 RMK A01 T01440065  RH  059%=      5-min Rain = 0
KTR1 200534Z 16010KT 14/07 A2982 RMK A01 T01440065  RH  059%=      5-min Rain = 0
KTR1 200535Z 16010KT 14/07 A2982 RMK A01 T01440065  RH  059%=      5-min Rain = 0
KTR1 200536Z 16011KT 14/07 A2982 RMK A01 T01440065  RH  059%=      5-min Rain = 0
KTR1 200537Z 16011KT 14/07 A2982 RMK A01 T01440066  RH  059%=      5-min Rain = 0
KTR1 200538Z 16011KT 14/07 A2982 RMK A01 T01440065  RH  059%=      5-min Rain = 0
KTR1 200539Z 16012KT 14/07 A2982 RMK A01 T01430065  RH  059%=      5-min Rain = 0
KTR1 200540Z 16012KT 14/07 A2982 RMK A01 T01430065  RH  059%=      5-min Rain = 0
KTR1 200541Z 16011KT 14/07 A2982 RMK A01 T01420065  RH  060%=      5-min Rain = 0
KTR1 200542Z 16011KT 14/07 A2982 RMK A01 T01410065  RH  060%=      5-min Rain = 0
KTR1 200543Z 16011KT 14/07 A2982 RMK A01 T01410065  RH  060%=      5-min Rain = 0
KTR1 200544Z 16011KT 14/07 A2982 RMK A01 T01400065  RH  060%=      5-min Rain = 0
KTR1 200545Z 16011KT 14/07 A2982 RMK A01 T01400065  RH  061%=      5-min Rain = 0
KTR1 200546Z 17011KT 14/07 A2982 RMK A01 T01400065  RH  061%=      5-min Rain = 0
KTR1 200547Z 16010KT 14/07 A2982 RMK A01 T01400066  RH  061%=      5-min Rain = 0
KTR1 200548Z 17011KT 14/07 A2982 RMK A01 T01390065  RH  061%=      5-min Rain = 0
KTR1 200549Z 17010KT 14/07 A2982 RMK A01 T01390066  RH  061%=      5-min Rain = 0
KTR1 200550Z 16010KT 14/07 A2982 RMK A01 T01380066  RH  062%=      5-min Rain = 0
KTR1 200551Z 17010KT 14/07 A2982 RMK A01 T01380066  RH  062%=      5-min Rain = 0
KTR1 200552Z 17010KT 14/07 A2982 RMK A01 T01370066  RH  062%=      5-min Rain = 0
KTR1 200553Z 17010KT 14/07 A2982 RMK A01 T01370066  RH  062%=      5-min Rain = 0
KTR1 200554Z 17010KT 14/07 A2982 RMK A01 T01370066  RH  062%=      5-min Rain = 0
KTR1 200555Z 17010KT 14/07 A2982 RMK A01 T01370066  RH  062%=      5-min Rain = 0
KTR1 200556Z 17010KT 14/07 A2982 RMK A01 T01370066  RH  062%=      5-min Rain = 0
KTR1 200557Z 17009KT 14/07 A2982 RMK A01 T01360066  RH  063%=      5-min Rain = 0
KTR1 200558Z 17010KT 14/07 A2982 RMK A01 T01360066  RH  063%=      5-min Rain = 0
KTR1 200559Z 17009KT 14/07 A2982 RMK A01 T01360066  RH  063%=      5-min Rain = 0

Page generated in 0.1191 seconds.